Wetterdaten: Dienstag, 03.03.2015
Datum Zeit Temp. Aussen +5cm Feuchte Auss Luftdruck Regen Sonnenschein Regendauer Solar Windben
03.03.2015 00:00 3,2 C 1,7 C 82 % 1015,2 hPa 0,0 l/m 0 min 0 min 0 W/m 25,1 km/h (4 Bft)
03.03.2015 00:02 3,2 C 1,7 C 82 % 1015,2 hPa 0,0 l/m 0 min 0 min 0 W/m 18,8 km/h (3 Bft)
03.03.2015 00:06 3,2 C 1,7 C 82 % 1015,3 hPa 0,0 l/m 0 min 0 min 0 W/m 25,1 km/h (4 Bft)
03.03.2015 00:08 3,2 C 1,7 C 82 % 1015,3 hPa 0,0 l/m 0 min 0 min 0 W/m 27,2 km/h (4 Bft)
03.03.2015 00:10 3,2 C 1,7 C 82 % 1015,3 hPa 0,0 l/m 0 min 0 min 0 W/m 18,8 km/h (3 Bft)
03.03.2015 00:12 3,2 C 1,7 C 82 % 1015,3 hPa 0,0 l/m 0 min 0 min 0 W/m 20,9 km/h (4 Bft)
03.03.2015 00:14 3,2 C 1,7 C 82 % 1015,3 hPa 0,0 l/m 0 min 0 min 0 W/m 23,0 km/h (4 Bft)
03.03.2015 00:16 3,2 C 1,7 C 83 % 1015,4 hPa 0,0 l/m 0 min 0 min 0 W/m 20,9 km/h (4 Bft)
03.03.2015 00:18 3,2 C 1,7 C 82 % 1015,4 hPa 0,0 l/m 0 min 0 min 0 W/m 27,2 km/h (4 Bft)
03.03.2015 00:20 3,2 C 1,7 C 82 % 1015,4 hPa 0,0 l/m 0 min 0 min 0 W/m 20,9 km/h (4 Bft)
03.03.2015 00:22 3,1 C 1,7 C 83 % 1015,3 hPa 0,0 l/m 0 min 0 min 0 W/m 27,2 km/h (4 Bft)
03.03.2015 00:24 3,2 C 1,7 C 83 % 1015,3 hPa 0,0 l/m 0 min 0 min 0 W/m 18,8 km/h (3 Bft)
03.03.2015 00:26 3,1 C 1,7 C 83 % 1015,4 hPa 0,0 l/m 0 min 0 min 0 W/m 27,2 km/h (4 Bft)
03.03.2015 00:28 3,1 C 1,7 C 83 % 1015,4 hPa 0,0 l/m 0 min 0 min 0 W/m 23,0 km/h (4 Bft)
03.03.2015 00:30 3,1 C 1,7 C 83 % 1015,4 hPa 0,0 l/m 0 min 0 min 0 W/m 18,8 km/h (3 Bft)
03.03.2015 00:32 3,1 C 1,7 C 83 % 1015,3 hPa 0,0 l/m 0 min 0 min 0 W/m 20,9 km/h (4 Bft)
03.03.2015 00:34 3,1 C 1,7 C 83 % 1015,3 hPa 0,0 l/m 0 min 0 min 0 W/m 23,0 km/h (4 Bft)
03.03.2015 00:36 3,1 C 1,7 C 83 % 1015,5 hPa 0,0 l/m 0 min 0 min 0 W/m 25,1 km/h (4 Bft)
03.03.2015 00:38 3,1 C 1,7 C 83 % 1015,4 hPa 0,0 l/m 0 min 0 min 0 W/m 29,3 km/h (5 Bft)
03.03.2015 00:40 3,1 C 1,7 C 83 % 1015,5 hPa 0,0 l/m 0 min 0 min 0 W/m 23,0 km/h (4 Bft)
03.03.2015 00:42 3,1 C 1,7 C 83 % 1015,5 hPa 0,0 l/m 0 min 0 min 0 W/m 25,1 km/h (4 Bft)
03.03.2015 00:44 3,1 C 1,7 C 83 % 1015,4 hPa 0,0 l/m 0 min 0 min 0 W/m 23,0 km/h (4 Bft)
03.03.2015 00:46 3,1 C 1,7 C 83 % 1015,5 hPa 0,0 l/m 0 min 0 min 0 W/m 23,0 km/h (4 Bft)
03.03.2015 00:48 3,1 C 1,7 C 83 % 1015,4 hPa 0,0 l/m 0 min 0 min 0 W/m 27,2 km/h (4 Bft)
03.03.2015 00:50 3,1 C 1,7 C 83 % 1015,5 hPa 0,0 l/m 0 min 0 min 0 W/m 27,2 km/h (4 Bft)
03.03.2015 00:52 3,1 C 1,7 C 83 % 1015,6 hPa 0,0 l/m 0 min 0 min 0 W/m 29,3 km/h (5 Bft)
03.03.2015 00:54 3,1 C 1,7 C 83 % 1015,6 hPa 0,0 l/m 0 min 0 min 0 W/m 27,2 km/h (4 Bft)
03.03.2015 00:56 3,1 C 1,7 C 83 % 1015,7 hPa 0,0 l/m 0 min 0 min 0 W/m 20,9 km/h (4 Bft)
03.03.2015 00:58 3,1 C 1,7 C 83 % 1015,8 hPa 0,0 l/m 0 min 0 min 0 W/m 20,9 km/h (4 Bft)
03.03.2015 01:00 3,1 C 1,7 C 83 % 1015,7 hPa 0,0 l/m 0 min 0 min 0 W/m 31,4 km/h (5 Bft)
03.03.2015 01:02 3,1 C 1,7 C 83 % 1015,7 hPa 0,0 l/m 0 min 0 min 0 W/m 29,3 km/h (5 Bft)
03.03.2015 01:04 3,1 C 1,7 C 83 % 1015,8 hPa 0,0 l/m 0 min 0 min 0 W/m 25,1 km/h (4 Bft)
03.03.2015 01:06 3,1 C 1,7 C 83 % 1015,8 hPa 0,0 l/m 0 min 0 min 0 W/m 23,0 km/h (4 Bft)
03.03.2015 01:08 3,1 C 1,7 C 83 % 1015,7 hPa 0,0 l/m 0 min 0 min 0 W/m 25,1 km/h (4 Bft)
03.03.2015 01:10 3,1 C 1,1 C 83 % 1015,8 hPa 0,0 l/m 0 min 0 min 0 W/m 23,0 km/h (4 Bft)
03.03.2015 01:12 3,1 C 1,7 C 83 % 1015,7 hPa 0,0 l/m 0 min 0 min 0 W/m 23,0 km/h (4 Bft)
03.03.2015 01:14 3,1 C 1,7 C 83 % 1015,8 hPa 0,0 l/m 0 min 0 min 0 W/m 25,1 km/h (4 Bft)
03.03.2015 01:16 3,1 C 1,7 C 83 % 1015,8 hPa 0,0 l/m 0 min 0 min 0 W/m 20,9 km/h (4 Bft)
03.03.2015 01:18 3,1 C 1,7 C 83 % 1015,9 hPa 0,0 l/m 0 min 0 min 0 W/m 23,0 km/h (4 Bft)
03.03.2015 01:20 3,1 C 1,7 C 83 % 1016,0 hPa 0,0 l/m 0 min 0 min 0 W/m 23,0 km/h (4 Bft)
03.03.2015 01:22 3,0 C 1,7 C 83 % 1015,9 hPa 0,0 l/m 0 min 0 min 0 W/m 27,2 km/h (4 Bft)
03.03.2015 01:24 3,0 C 1,1 C 83 % 1015,9 hPa 0,0 l/m 0 min 0 min 0 W/m 25,1 km/h (4 Bft)
03.03.2015 01:26 3,0 C 1,7 C 83 % 1015,9 hPa 0,0 l/m 0 min 0 min 0 W/m 23,0 km/h (4 Bft)
03.03.2015 01:28 3,0 C 1,7 C 83 % 1016,1 hPa 0,0 l/m 0 min 0 min 0 W/m 31,4 km/h (5 Bft)
03.03.2015 01:30 3,0 C 1,7 C 83 % 1015,9 hPa 0,0 l/m 0 min 0 min 0 W/m 20,9 km/h (4 Bft)
03.03.2015 01:32 3,0 C 1,7 C 84 % 1016,0 hPa 0,0 l/m 0 min 0 min 0 W/m 25,1 km/h (4 Bft)
03.03.2015 01:34 3,0 C 1,1 C 84 % 1016,0 hPa 0,0 l/m 0 min 0 min 0 W/m 23,0 km/h (4 Bft)
03.03.2015 01:36 2,9 C 1,1 C 84 % 1016,0 hPa 0,0 l/m 0 min 0 min 0 W/m 23,0 km/h (4 Bft)
03.03.2015 01:38 2,9 C 1,1 C 84 % 1016,1 hPa 0,0 l/m 0 min 0 min 0 W/m 25,1 km/h (4 Bft)
03.03.2015 01:40 2,9 C 1,1 C 84 % 1016,1 hPa 0,0 l/m 0 min 0 min 0 W/m 29,3 km/h (5 Bft)
03.03.2015 01:42 2,9 C 1,1 C 84 % 1016,1 hPa 0,0 l/m 0 min 0 min 0 W/m 18,8 km/h (3 Bft)
03.03.2015 01:44 2,9 C 1,1 C 84 % 1016,1 hPa 0,0 l/m 0 min 0 min 0 W/m 27,2 km/h (4 Bft)
03.03.2015 01:46 2,9 C 1,1 C 84 % 1016,2 hPa 0,0 l/m 0 min 0 min 0 W/m 29,3 km/h (5 Bft)
03.03.2015 01:48 2,9 C 1,1 C 84 % 1016,2 hPa 0,0 l/m 0 min 0 min 0 W/m 20,9 km/h (4 Bft)
03.03.2015 01:50 2,9 C 1,1 C 84 % 1016,2 hPa 0,0 l/m 0 min 0 min 0 W/m 27,2 km/h (4 Bft)
03.03.2015 01:52 2,9 C 1,1 C 84 % 1016,3 hPa 0,0 l/m 0 min 0 min 0 W/m 23,0 km/h (4 Bft)
03.03.2015 01:54 2,9 C 1,1 C 84 % 1016,4 hPa 0,0 l/m 0 min 0 min 0 W/m 33,5 km/h (5 Bft)
03.03.2015 01:56 2,8 C 1,1 C 84 % 1016,4 hPa 0,0 l/m 0 min 0 min 0 W/m 23,0 km/h (4 Bft)
03.03.2015 01:58 2,8 C 1,1 C 84 % 1016,4 hPa 0,0 l/m 0 min 0 min 0 W/m 23,0 km/h (4 Bft)
03.03.2015 02:00 2,8 C 1,1 C 85 % 1016,4 hPa 0,0 l/m 0 min 0 min 0 W/m 29,3 km/h (5 Bft)
03.03.2015 02:02 2,8 C 1,1 C 85 % 1016,5 hPa 0,0 l/m 0 min 0 min 0 W/m 33,5 km/h (5 Bft)
03.03.2015 02:04 2,8 C 1,1 C 85 % 1016,4 hPa 0,0 l/m 0 min 0 min 0 W/m 29,3 km/h (5 Bft)
03.03.2015 02:06 2,8 C 1,1 C 85 % 1016,5 hPa 0,0 l/m 0 min 0 min 0 W/m 29,3 km/h (5 Bft)
03.03.2015 02:08 2,8 C 1,1 C 85 % 1016,5 hPa 0,0 l/m 0 min 0 min 0 W/m 27,2 km/h (4 Bft)
03.03.2015 02:10 2,8 C 1,1 C 85 % 1016,5 hPa 0,0 l/m 0 min 0 min 0 W/m 25,1 km/h (4 Bft)
03.03.2015 02:12 2,8 C 1,1 C 85 % 1016,5 hPa 0,0 l/m 0 min 0 min 0 W/m 25,1 km/h (4 Bft)
03.03.2015 02:14 2,8 C 1,1 C 85 % 1016,5 hPa 0,0 l/m 0 min 0 min 0 W/m 27,2 km/h (4 Bft)
03.03.2015 02:16 2,8 C 1,1 C 85 % 1016,5 hPa 0,0 l/m 0 min 0 min 0 W/m 25,1 km/h (4 Bft)
03.03.2015 02:18 2,8 C 1,1 C 85 % 1016,6 hPa 0,0 l/m 0 min 0 min 0 W/m 25,1 km/h (4 Bft)
03.03.2015 02:20 2,8 C 1,1 C 85 % 1016,6 hPa 0,0 l/m 0 min 0 min 0 W/m 25,1 km/h (4 Bft)
03.03.2015 02:22 2,8 C 1,1 C 85 % 1016,5 hPa 0,0 l/m 0 min 0 min 0 W/m 29,3 km/h (5 Bft)
03.03.2015 02:24 2,8 C 1,1 C 85 % 1016,6 hPa 0,0 l/m 0 min 0 min 0 W/m 25,1 km/h (4 Bft)
03.03.2015 02:26 2,8 C 1,1 C 86 % 1016,6 hPa 0,0 l/m 0 min 0 min 0 W/m 25,1 km/h (4 Bft)
03.03.2015 02:28 2,8 C 1,1 C 86 % 1016,6 hPa 0,0 l/m 0 min 0 min 0 W/m 29,3 km/h (5 Bft)
03.03.2015 02:30 2,8 C 1,1 C 85 % 1016,7 hPa 0,0 l/m 0 min 0 min 0 W/m 27,2 km/h (4 Bft)
03.03.2015 02:32 2,8 C 1,1 C 86 % 1016,6 hPa 0,0 l/m 0 min 0 min 0 W/m 18,8 km/h (3 Bft)
03.03.2015 02:34 2,8 C 1,1 C 86 % 1016,6 hPa 0,0 l/m 0 min 0 min 0 W/m 20,9 km/h (4 Bft)
03.03.2015 02:36 2,8 C 1,1 C 86 % 1016,6 hPa 0,0 l/m 0 min 0 min 0 W/m 20,9 km/h (4 Bft)
03.03.2015 02:38 2,8 C 1,1 C 86 % 1016,6 hPa 0,0 l/m 0 min 0 min 0 W/m 27,2 km/h (4 Bft)
03.03.2015 02:40 2,8 C 1,1 C 86 % 1016,7 hPa 0,0 l/m 0 min 0 min 0 W/m 27,2 km/h (4 Bft)
03.03.2015 02:42 2,8 C 1,1 C 86 % 1016,6 hPa 0,0 l/m 0 min 0 min 0 W/m 18,8 km/h (3 Bft)
03.03.2015 02:44 2,8 C 1,1 C 86 % 1016,7 hPa 0,0 l/m 0 min 0 min 0 W/m 20,9 km/h (4 Bft)
03.03.2015 02:46 2,8 C 1,1 C 86 % 1016,6 hPa 0,0 l/m 0 min 0 min 0 W/m 23,0 km/h (4 Bft)
03.03.2015 02:48 2,7 C 1,1 C 86 % 1016,5 hPa 0,0 l/m 0 min 0 min 0 W/m 23,0 km/h (4 Bft)
03.03.2015 02:50 2,7 C 1,1 C 86 % 1016,6 hPa 0,0 l/m 0 min 0 min 0 W/m 18,8 km/h (3 Bft)
03.03.2015 02:52 2,7 C 1,1 C 87 % 1016,6 hPa 0,0 l/m 0 min 0 min 0 W/m 23,0 km/h (4 Bft)
03.03.2015 02:54 2,7 C 1,1 C 87 % 1016,6 hPa 0,0 l/m 0 min 0 min 0 W/m 23,0 km/h (4 Bft)
03.03.2015 02:56 2,7 C 1,1 C 87 % 1016,5 hPa 0,0 l/m 0 min 0 min 0 W/m 20,9 km/h (4 Bft)
03.03.2015 02:58 2,7 C 1,1 C 87 % 1016,6 hPa 0,0 l/m 0 min 0 min 0 W/m 18,8 km/h (3 Bft)
03.03.2015 03:00 2,7 C 1,1 C 87 % 1016,6 hPa 0,0 l/m 0 min 0 min 0 W/m 25,1 km/h (4 Bft)
03.03.2015 03:02 2,7 C 1,1 C 87 % 1016,6 hPa 0,0 l/m 0 min 0 min 0 W/m 25,1 km/h (4 Bft)
03.03.2015 03:04 2,7 C 1,1 C 87 % 1016,7 hPa 0,0 l/m 0 min 0 min 0 W/m 20,9 km/h (4 Bft)
03.03.2015 03:06 2,7 C 1,1 C 87 % 1016,6 hPa 0,0 l/m 0 min 0 min 0 W/m 23,0 km/h (4 Bft)
03.03.2015 03:08 2,7 C 1,1 C 87 % 1016,6 hPa 0,0 l/m 0 min 0 min 0 W/m 18,8 km/h (3 Bft)
03.03.2015 03:10 2,7 C 1,1 C 87 % 1016,6 hPa 0,0 l/m 0 min 0 min 0 W/m 16,7 km/h (3 Bft)
03.03.2015 03:12 2,7 C 1,1 C 87 % 1016,6 hPa 0,0 l/m 0 min 0 min 0 W/m 20,9 km/h (4 Bft)
03.03.2015 03:14 2,7 C 1,1 C 87 % 1016,6 hPa 0,0 l/m 0 min 0 min 0 W/m 27,2 km/h (4 Bft)
03.03.2015 03:16 2,7 C 1,1 C 87 % 1016,6 hPa 0,0 l/m 0 min 0 min 0 W/m 23,0 km/h (4 Bft)
03.03.2015 03:18 2,7 C 1,1 C 88 % 1016,5 hPa 0,0 l/m 0 min 0 min 0 W/m 16,7 km/h (3 Bft)
03.03.2015 03:20 2,7 C 1,1 C 88 % 1016,6 hPa 0,0 l/m 0 min 0 min 0 W/m 18,8 km/h (3 Bft)
03.03.2015 03:22 2,7 C 1,1 C 88 % 1016,6 hPa 0,0 l/m 0 min 0 min 0 W/m 16,7 km/h (3 Bft)
03.03.2015 03:24 2,7 C 1,1 C 88 % 1016,6 hPa 0,0 l/m 0 min 0 min 0 W/m 14,6 km/h (3 Bft)
03.03.2015 03:26 2,6 C 1,1 C 88 % 1016,6 hPa 0,0 l/m 0 min 0 min 0 W/m 23,0 km/h (4 Bft)
03.03.2015 03:28 2,6 C 1,1 C 88 % 1016,6 hPa 0,0 l/m 0 min 0 min 0 W/m 14,6 km/h (3 Bft)
03.03.2015 03:30 2,6 C 1,1 C 88 % 1016,5 hPa 0,0 l/m 0 min 0 min 0 W/m 20,9 km/h (4 Bft)
03.03.2015 03:32 2,6 C 1,1 C 88 % 1016,6 hPa 0,0 l/m 0 min 0 min 0 W/m 20,9 km/h (4 Bft)
03.03.2015 03:34 2,6 C 1,1 C 88 % 1016,6 hPa 0,0 l/m 0 min 0 min 0 W/m 14,6 km/h (3 Bft)
03.03.2015 03:36 2,6 C 1,1 C 88 % 1016,6 hPa 0,0 l/m 0 min 0 min 0 W/m 18,8 km/h (3 Bft)
03.03.2015 03:38 2,6 C 1,1 C 88 % 1016,6 hPa 0,0 l/m 0 min 0 min 0 W/m 16,7 km/h (3 Bft)
03.03.2015 03:40 2,6 C 1,1 C 88 % 1016,6 hPa 0,0 l/m 0 min 0 min 0 W/m 18,8 km/h (3 Bft)
03.03.2015 03:42 2,6 C 1,1 C 88 % 1016,6 hPa 0,0 l/m 0 min 0 min 0 W/m 18,8 km/h (3 Bft)
03.03.2015 03:44 2,6 C 1,1 C 88 % 1016,6 hPa 0,0 l/m 0 min 0 min 0 W/m 27,2 km/h (4 Bft)
03.03.2015 03:46 2,6 C 1,1 C 88 % 1016,6 hPa 0,0 l/m 0 min 0 min 0 W/m 25,1 km/h (4 Bft)
03.03.2015 03:48 2,6 C 1,1 C 88 % 1016,6 hPa 0,0 l/m 0 min 0 min 0 W/m 20,9 km/h (4 Bft)
03.03.2015 03:50 2,6 C 1,1 C 88 % 1016,7 hPa 0,0 l/m 0 min 0 min 0 W/m 23,0 km/h (4 Bft)
03.03.2015 03:52 2,6 C 1,7 C 88 % 1016,7 hPa 0,0 l/m 0 min 0 min 0 W/m 16,7 km/h (3 Bft)
03.03.2015 03:54 2,6 C 1,7 C 89 % 1016,7 hPa 0,0 l/m 0 min 0 min 0 W/m 27,2 km/h (4 Bft)
03.03.2015 03:56 2,6 C 1,7 C 89 % 1016,7 hPa 0,0 l/m 0 min 0 min 0 W/m 18,8 km/h (3 Bft)
03.03.2015 03:58 2,6 C 1,7 C 89 % 1016,7 hPa 0,0 l/m 0 min 0 min 0 W/m 23,0 km/h (4 Bft)
03.03.2015 04:00 2,7 C 1,7 C 89 % 1016,7 hPa 0,0 l/m 0 min 0 min 0 W/m 18,8 km/h (3 Bft)
03.03.2015 04:02 2,7 C 1,7 C 89 % 1016,7 hPa 0,0 l/m 0 min 0 min 0 W/m 20,9 km/h (4 Bft)
03.03.2015 04:04 2,7 C 1,1 C 89 % 1016,7 hPa 0,0 l/m 0 min 0 min 0 W/m 18,8 km/h (3 Bft)
03.03.2015 04:06 2,7 C 1,1 C 89 % 1016,8 hPa 0,0 l/m 0 min 0 min 0 W/m 16,7 km/h (3 Bft)
03.03.2015 04:08 2,7 C 1,1 C 89 % 1016,8 hPa 0,0 l/m 0 min 0 min 0 W/m 20,9 km/h (4 Bft)
03.03.2015 04:10 2,6 C 1,1 C 89 % 1016,8 hPa 0,0 l/m 0 min 0 min 0 W/m 23,0 km/h (4 Bft)
03.03.2015 04:12 2,6 C 1,1 C 89 % 1016,9 hPa 0,0 l/m 0 min 0 min 0 W/m 29,3 km/h (5 Bft)
03.03.2015 04:14 2,6 C 1,1 C 89 % 1016,8 hPa 0,0 l/m 0 min 0 min 0 W/m 25,1 km/h (4 Bft)
03.03.2015 04:16 2,6 C 1,1 C 89 % 1016,8 hPa 0,0 l/m 0 min 0 min 0 W/m 23,0 km/h (4 Bft)
03.03.2015 04:18 2,6 C 1,1 C 89 % 1016,8 hPa 0,0 l/m 0 min 0 min 0 W/m 25,1 km/h (4 Bft)
03.03.2015 04:20 2,6 C 1,1 C 89 % 1016,8 hPa 0,0 l/m 0 min 0 min 0 W/m 18,8 km/h (3 Bft)
03.03.2015 04:22 2,6 C 1,1 C 89 % 1016,7 hPa 0,0 l/m 0 min 0 min 0 W/m 23,0 km/h (4 Bft)
03.03.2015 04:24 2,6 C 1,1 C 89 % 1016,7 hPa 0,0 l/m 0 min 0 min 0 W/m 35,6 km/h (5 Bft)
03.03.2015 04:26 2,6 C 1,1 C 89 % 1016,7 hPa 0,0 l/m 0 min 0 min 0 W/m 27,2 km/h (4 Bft)
03.03.2015 04:28 2,6 C 1,1 C 89 % 1016,6 hPa 0,0 l/m 0 min 0 min 0 W/m 20,9 km/h (4 Bft)
03.03.2015 04:30 2,7 C 1,1 C 89 % 1016,8 hPa 0,0 l/m 0 min 0 min 0 W/m 29,3 km/h (5 Bft)
03.03.2015 04:32 2,7 C 1,1 C 89 % 1016,7 hPa 0,0 l/m 0 min 0 min 0 W/m 27,2 km/h (4 Bft)
03.03.2015 04:34 2,7 C 1,1 C 89 % 1016,7 hPa 0,0 l/m 0 min 0 min 0 W/m 27,2 km/h (4 Bft)
03.03.2015 04:36 2,7 C 1,1 C 89 % 1016,7 hPa 0,0 l/m 0 min 0 min 0 W/m 27,2 km/h (4 Bft)
03.03.2015 04:38 2,7 C 1,7 C 89 % 1016,8 hPa 0,0 l/m 0 min 0 min 0 W/m 23,0 km/h (4 Bft)
03.03.2015 04:40 2,7 C 1,7 C 89 % 1016,8 hPa 0,0 l/m 0 min 0 min 0 W/m 27,2 km/h (4 Bft)
03.03.2015 04:42 2,7 C 1,7 C 89 % 1016,7 hPa 0,0 l/m 0 min 0 min 0 W/m 20,9 km/h (4 Bft)
03.03.2015 04:44 2,7 C 1,7 C 89 % 1016,7 hPa 0,0 l/m 0 min 0 min 0 W/m 31,4 km/h (5 Bft)
03.03.2015 04:46 2,7 C 1,7 C 89 % 1016,7 hPa 0,0 l/m 0 min 0 min 0 W/m 27,2 km/h (4 Bft)
03.03.2015 04:48 2,7 C 1,7 C 89 % 1016,6 hPa 0,0 l/m 0 min 0 min 0 W/m 23,0 km/h (4 Bft)
03.03.2015 04:50 2,7 C 1,7 C 89 % 1016,7 hPa 0,0 l/m 0 min 0 min 0 W/m 27,2 km/h (4 Bft)
03.03.2015 04:52 2,8 C 1,7 C 89 % 1016,7 hPa 0,0 l/m 0 min 0 min 0 W/m 31,4 km/h (5 Bft)
03.03.2015 04:54 2,8 C 1,7 C 89 % 1016,7 hPa 0,0 l/m 0 min 0 min 0 W/m 23,0 km/h (4 Bft)
03.03.2015 04:56 2,8 C 1,7 C 89 % 1016,7 hPa 0,0 l/m 0 min 0 min 0 W/m 23,0 km/h (4 Bft)
03.03.2015 04:58 2,8 C 1,7 C 89 % 1016,8 hPa 0,0 l/m 0 min 0 min 0 W/m 25,1 km/h (4 Bft)
03.03.2015 05:00 2,8 C 1,7 C 89 % 1016,8 hPa 0,0 l/m 0 min 0 min 0 W/m 29,3 km/h (5 Bft)
03.03.2015 05:02 2,8 C 1,7 C 89 % 1016,8 hPa 0,0 l/m 0 min 0 min 0 W/m 25,1 km/h (4 Bft)
03.03.2015 05:04 2,8 C 1,7 C 89 % 1016,7 hPa 0,0 l/m 0 min 0 min 0 W/m 25,1 km/h (4 Bft)
03.03.2015 05:06 2,9 C 1,7 C 89 % 1016,8 hPa 0,0 l/m 0 min 0 min 0 W/m 25,1 km/h (4 Bft)
03.03.2015 05:08 2,9 C 1,7 C 89 % 1016,7 hPa 0,0 l/m 0 min 0 min 0 W/m 20,9 km/h (4 Bft)
03.03.2015 05:10 2,9 C 1,7 C 89 % 1016,7 hPa 0,0 l/m 0 min 0 min 0 W/m 25,1 km/h (4 Bft)
03.03.2015 05:12 2,9 C 1,7 C 89 % 1016,7 hPa 0,0 l/m 0 min 0 min 0 W/m 33,5 km/h (5 Bft)
03.03.2015 05:14 2,9 C 1,7 C 89 % 1016,8 hPa 0,0 l/m 0 min 0 min 0 W/m 33,5 km/h (5 Bft)
03.03.2015 05:16 2,9 C 1,7 C 89 % 1016,6 hPa 0,0 l/m 0 min 0 min 0 W/m 25,1 km/h (4 Bft)
03.03.2015 05:18 2,9 C 1,7 C 89 % 1016,8 hPa 0,0 l/m 0 min 0 min 0 W/m 29,3 km/h (5 Bft)
03.03.2015 05:20 2,9 C 1,7 C 89 % 1016,7 hPa 0,0 l/m 0 min 0 min 0 W/m 29,3 km/h (5 Bft)
03.03.2015 05:22 3,0 C 1,7 C 89 % 1016,7 hPa 0,0 l/m 0 min 0 min 0 W/m 27,2 km/h (4 Bft)
03.03.2015 05:24 3,0 C 1,7 C 89 % 1016,7 hPa 0,0 l/m 0 min 0 min 0 W/m 27,2 km/h (4 Bft)
03.03.2015 05:26 3,0 C 1,7 C 89 % 1016,7 hPa 0,0 l/m 0 min 0 min 0 W/m 35,6 km/h (5 Bft)
03.03.2015 05:28 3,0 C 1,7 C 89 % 1016,7 hPa 0,0 l/m 0 min 0 min 0 W/m 31,4 km/h (5 Bft)
03.03.2015 05:30 3,1 C 1,7 C 89 % 1016,8 hPa 0,0 l/m 0 min 0 min 0 W/m 29,3 km/h (5 Bft)
03.03.2015 05:32 3,1 C 1,7 C 89 % 1016,7 hPa 0,0 l/m 0 min 0 min 0 W/m 27,2 km/h (4 Bft)
03.03.2015 05:34 3,1 C 1,7 C 89 % 1016,7 hPa 0,0 l/m 0 min 0 min 0 W/m 33,5 km/h (5 Bft)
03.03.2015 05:36 3,1 C 1,7 C 89 % 1016,7 hPa 0,0 l/m 0 min 0 min 0 W/m 31,4 km/h (5 Bft)
03.03.2015 05:38 3,1 C 1,7 C 89 % 1016,8 hPa 0,0 l/m 0 min 0 min 0 W/m 25,1 km/h (4 Bft)
03.03.2015 05:40 3,1 C 1,7 C 89 % 1016,8 hPa 0,0 l/m 0 min 0 min 0 W/m 43,9 km/h (6 Bft)
03.03.2015 05:42 3,1 C 1,7 C 89 % 1016,7 hPa 0,0 l/m 0 min 0 min 0 W/m 29,3 km/h (5 Bft)
03.03.2015 05:44 3,1 C 1,7 C 89 % 1016,7 hPa 0,0 l/m 0 min 0 min 0 W/m 29,3 km/h (5 Bft)
03.03.2015 05:46 3,1 C 1,7 C 88 % 1016,8 hPa 0,0 l/m 0 min 0 min 0 W/m 31,4 km/h (5 Bft)
03.03.2015 05:48 3,1 C 1,7 C 88 % 1016,9 hPa 0,0 l/m 0 min 0 min 0 W/m 29,3 km/h (5 Bft)
03.03.2015 05:50 3,1 C 1,7 C 88 % 1016,9 hPa 0,0 l/m 0 min 0 min 0 W/m 27,2 km/h (4 Bft)
03.03.2015 05:52 3,1 C 1,7 C 88 % 1016,8 hPa 0,0 l/m 0 min 0 min 0 W/m 29,3 km/h (5 Bft)
03.03.2015 05:54 3,1 C 1,7 C 88 % 1016,9 hPa 0,0 l/m 0 min 0 min 0 W/m 29,3 km/h (5 Bft)
03.03.2015 05:56 3,1 C 1,7 C 88 % 1017,0 hPa 0,0 l/m 0 min 0 min 0 W/m 35,6 km/h (5 Bft)
03.03.2015 05:58 3,0 C 1,7 C 88 % 1016,9 hPa 0,0 l/m 0 min 0 min 0 W/m 20,9 km/h (4 Bft)
03.03.2015 06:00 3,0 C 1,7 C 88 % 1016,8 hPa 0,0 l/m 0 min 0 min 0 W/m 39,7 km/h (6 Bft)
03.03.2015 06:02 3,0 C 1,7 C 88 % 1016,8 hPa 0,0 l/m 0 min 0 min 0 W/m 39,7 km/h (6 Bft)
03.03.2015 06:04 3,0 C 1,7 C 88 % 1016,8 hPa 0,0 l/m 0 min 0 min 0 W/m 35,6 km/h (5 Bft)
03.03.2015 06:06 3,0 C 1,7 C 88 % 1016,7 hPa 0,0 l/m 0 min 0 min 0 W/m 31,4 km/h (5 Bft)
03.03.2015 06:08 3,0 C 1,7 C 88 % 1016,7 hPa 0,0 l/m 0 min 0 min 0 W/m 27,2 km/h (4 Bft)
03.03.2015 06:10 3,0 C 1,7 C 88 % 1016,7 hPa 0,0 l/m 0 min 0 min 0 W/m 23,0 km/h (4 Bft)
03.03.2015 06:12 3,0 C 1,7 C 88 % 1016,7 hPa 0,0 l/m 0 min 0 min 0 W/m 29,3 km/h (5 Bft)
03.03.2015 06:14 3,0 C 1,7 C 88 % 1016,8 hPa 0,0 l/m 0 min 0 min 0 W/m 29,3 km/h (5 Bft)
03.03.2015 06:16 3,0 C 1,7 C 88 % 1016,7 hPa 0,0 l/m 0 min 0 min 0 W/m 29,3 km/h (5 Bft)
03.03.2015 06:18 2,9 C 1,7 C 88 % 1016,7 hPa 0,0 l/m 0 min 0 min 0 W/m 31,4 km/h (5 Bft)
03.03.2015 06:20 2,9 C 1,7 C 88 % 1016,7 hPa 0,0 l/m 0 min 0 min 0 W/m 27,2 km/h (4 Bft)
03.03.2015 06:22 2,9 C 1,7 C 88 % 1016,7 hPa 0,0 l/m 0 min 0 min 0 W/m 35,6 km/h (5 Bft)
03.03.2015 06:24 2,9 C 1,7 C 88 % 1016,7 hPa 0,0 l/m 0 min 0 min 0 W/m 29,3 km/h (5 Bft)
03.03.2015 06:26 2,9 C 1,7 C 88 % 1016,8 hPa 0,0 l/m 0 min 0 min 0 W/m 37,7 km/h (5 Bft)
03.03.2015 06:28 2,9 C 1,7 C 88 % 1016,8 hPa 0,0 l/m 0 min 0 min 0 W/m 25,1 km/h (4 Bft)
03.03.2015 06:30 2,9 C 1,7 C 88 % 1016,9 hPa 0,0 l/m 0 min 0 min 0 W/m 33,5 km/h (5 Bft)
03.03.2015 06:32 2,9 C 1,7 C 88 % 1016,8 hPa 0,0 l/m 0 min 0 min 0 W/m 29,3 km/h (5 Bft)
03.03.2015 06:34 2,9 C 1,7 C 88 % 1016,9 hPa 0,0 l/m 0 min 0 min 0 W/m 27,2 km/h (4 Bft)
03.03.2015 06:36 2,9 C 1,7 C 88 % 1016,8 hPa 0,0 l/m 0 min 0 min 0 W/m 23,0 km/h (4 Bft)
03.03.2015 06:38 2,9 C 1,7 C 88 % 1016,8 hPa 0,0 l/m 0 min 0 min 0 W/m 29,3 km/h (5 Bft)
03.03.2015 06:40 2,9 C 1,7 C 88 % 1016,8 hPa 0,0 l/m 0 min 0 min 0 W/m 25,1 km/h (4 Bft)
03.03.2015 06:42 2,9 C 1,1 C 88 % 1016,7 hPa 0,0 l/m 0 min 0 min 0 W/m 29,3 km/h (5 Bft)
03.03.2015 06:44 2,8 C 1,1 C 88 % 1016,9 hPa 0,0 l/m 0 min 0 min 0 W/m 25,1 km/h (4 Bft)
03.03.2015 06:46 2,8 C 1,1 C 88 % 1016,9 hPa 0,0 l/m 0 min 0 min 0 W/m 31,4 km/h (5 Bft)
03.03.2015 06:48 2,8 C 1,1 C 88 % 1016,9 hPa 0,0 l/m 0 min 0 min 0 W/m 27,2 km/h (4 Bft)
03.03.2015 06:50 2,8 C 1,1 C 88 % 1017,0 hPa 0,0 l/m 0 min 0 min 0 W/m 31,4 km/h (5 Bft)
03.03.2015 06:52 2,8 C 1,1 C 88 % 1016,9 hPa 0,0 l/m 0 min 0 min 0 W/m 25,1 km/h (4 Bft)
03.03.2015 06:54 2,8 C 1,1 C 88 % 1016,9 hPa 0,0 l/m 0 min 0 min 0 W/m 33,5 km/h (5 Bft)
03.03.2015 06:56 2,8 C 1,1 C 88 % 1016,9 hPa 0,0 l/m 0 min 0 min 0 W/m 25,1 km/h (4 Bft)
03.03.2015 06:58 2,8 C 1,1 C 88 % 1016,9 hPa 0,0 l/m 0 min 0 min 0 W/m 20,9 km/h (4 Bft)
03.03.2015 07:00 2,8 C 1,1 C 88 % 1016,8 hPa 0,0 l/m 0 min 0 min 0 W/m 25,1 km/h (4 Bft)
03.03.2015 07:02 2,8 C 1,1 C 88 % 1016,9 hPa 0,0 l/m 0 min 0 min 0 W/m 25,1 km/h (4 Bft)
03.03.2015 07:04 2,7 C 1,1 C 88 % 1016,9 hPa 0,0 l/m 0 min 0 min 0 W/m 23,0 km/h (4 Bft)
03.03.2015 07:06 2,7 C 1,1 C 88 % 1016,9 hPa 0,0 l/m 0 min 0 min 0 W/m 31,4 km/h (5 Bft)
03.03.2015 07:08 2,7 C 1,1 C 88 % 1016,9 hPa 0,0 l/m 0 min 0 min 2 W/m 25,1 km/h (4 Bft)
03.03.2015 07:10 2,7 C 1,1 C 88 % 1016,9 hPa 0,0 l/m 0 min 0 min 5 W/m 29,3 km/h (5 Bft)
03.03.2015 07:12 2,7 C 1,1 C 88 % 1016,9 hPa 0,0 l/m 0 min 0 min 5 W/m 29,3 km/h (5 Bft)
03.03.2015 07:14 2,7 C 1,1 C 88 % 1016,9 hPa 0,0 l/m 0 min 0 min 6 W/m 27,2 km/h (4 Bft)
03.03.2015 07:16 2,7 C 1,1 C 88 % 1017,0 hPa 0,0 l/m 0 min 0 min 7 W/m 29,3 km/h (5 Bft)
03.03.2015 07:18 2,7 C 1,1 C 88 % 1016,9 hPa 0,0 l/m 0 min 0 min 8 W/m 25,1 km/h (4 Bft)
03.03.2015 07:20 2,7 C 1,1 C 88 % 1017,0 hPa 0,0 l/m 0 min 0 min 11 W/m 25,1 km/h (4 Bft)
03.03.2015 07:22 2,7 C 1,1 C 88 % 1017,0 hPa 0,0 l/m 0 min 0 min 13 W/m 25,1 km/h (4 Bft)
03.03.2015 07:24 2,7 C 1,7 C 88 % 1017,0 hPa 0,0 l/m 0 min 0 min 16 W/m 27,2 km/h (4 Bft)
03.03.2015 07:26 2,8 C 1,7 C 88 % 1017,0 hPa 0,0 l/m 0 min 0 min 20 W/m 25,1 km/h (4 Bft)
03.03.2015 07:28 2,8 C 1,7 C 88 % 1016,9 hPa 0,0 l/m 2 min 0 min 24 W/m 33,5 km/h (5 Bft)
03.03.2015 07:30 2,8 C 1,7 C 88 % 1017,0 hPa 0,0 l/m 2 min 0 min 29 W/m 41,8 km/h (6 Bft)
03.03.2015 07:32 2,9 C 1,7 C 88 % 1017,0 hPa 0,0 l/m 2 min 0 min 32 W/m 37,7 km/h (5 Bft)
03.03.2015 07:34 2,9 C 1,7 C 88 % 1016,9 hPa 0,0 l/m 2 min 0 min 32 W/m 29,3 km/h (5 Bft)
03.03.2015 07:36 2,9 C 1,7 C 88 % 1017,0 hPa 0,0 l/m 2 min 0 min 33 W/m 31,4 km/h (5 Bft)
03.03.2015 07:38 3,0 C 2,2 C 88 % 1017,0 hPa 0,0 l/m 2 min 0 min 35 W/m 31,4 km/h (5 Bft)
03.03.2015 07:40 3,0 C 2,2 C 88 % 1017,1 hPa 0,0 l/m 2 min 0 min 41 W/m 27,2 km/h (4 Bft)
03.03.2015 07:42 3,1 C 2,2 C 88 % 1017,0 hPa 0,0 l/m 2 min 0 min 40 W/m 25,1 km/h (4 Bft)
03.03.2015 07:44 3,1 C 2,2 C 88 % 1017,0 hPa 0,0 l/m 2 min 0 min 39 W/m 37,7 km/h (5 Bft)
03.03.2015 07:46 3,1 C 2,2 C 88 % 1017,0 hPa 0,0 l/m 0 min 0 min 31 W/m 23,0 km/h (4 Bft)
03.03.2015 07:48 3,2 C 2,2 C 88 % 1017,1 hPa 0,0 l/m 0 min 0 min 26 W/m 23,0 km/h (4 Bft)
03.03.2015 07:50 3,2 C 2,2 C 88 % 1017,0 hPa 0,0 l/m 0 min 0 min 27 W/m 33,5 km/h (5 Bft)
03.03.2015 07:52 3,2 C 2,2 C 88 % 1017,1 hPa 0,0 l/m 0 min 0 min 28 W/m 20,9 km/h (4 Bft)
03.03.2015 07:54 3,3 C 2,2 C 88 % 1017,0 hPa 0,0 l/m 0 min 0 min 33 W/m 27,2 km/h (4 Bft)
03.03.2015 07:56 3,3 C 2,2 C 88 % 1017,0 hPa 0,0 l/m 0 min 0 min 45 W/m 25,1 km/h (4 Bft)
03.03.2015 07:58 3,4 C 2,8 C 87 % 1016,9 hPa 0,0 l/m 2 min 0 min 59 W/m 27,2 km/h (4 Bft)
03.03.2015 08:00 3,4 C 2,8 C 88 % 1017,0 hPa 0,0 l/m 2 min 0 min 59 W/m 27,2 km/h (4 Bft)
03.03.2015 08:02 3,5 C 2,8 C 87 % 1017,1 hPa 0,0 l/m 2 min 0 min 54 W/m 29,3 km/h (5 Bft)
03.03.2015 08:04 3,5 C 2,8 C 87 % 1017,0 hPa 0,0 l/m 2 min 0 min 66 W/m 35,6 km/h (5 Bft)
03.03.2015 08:06 3,6 C 2,8 C 87 % 1017,0 hPa 0,0 l/m 0 min 0 min 47 W/m 29,3 km/h (5 Bft)
03.03.2015 08:08 3,6 C 2,8 C 87 % 1017,0 hPa 0,0 l/m 0 min 0 min 41 W/m 25,1 km/h (4 Bft)
03.03.2015 08:10 3,7 C 2,8 C 87 % 1017,1 hPa 0,0 l/m 0 min 0 min 33 W/m 29,3 km/h (5 Bft)
03.03.2015 08:12 3,7 C 2,8 C 87 % 1017,2 hPa 0,0 l/m 0 min 0 min 36 W/m 23,0 km/h (4 Bft)
03.03.2015 08:14 3,7 C 2,8 C 87 % 1017,1 hPa 0,0 l/m 0 min 0 min 49 W/m 29,3 km/h (5 Bft)
03.03.2015 08:16 3,8 C 2,8 C 87 % 1017,2 hPa 0,0 l/m 0 min 0 min 67 W/m 31,4 km/h (5 Bft)
03.03.2015 08:18 3,8 C 3,3 C 87 % 1017,2 hPa 0,0 l/m 2 min 0 min 78 W/m 35,6 km/h (5 Bft)
03.03.2015 08:20 3,9 C 3,3 C 87 % 1017,2 hPa 0,0 l/m 2 min 0 min 85 W/m 29,3 km/h (5 Bft)
03.03.2015 08:22 3,9 C 3,3 C 86 % 1017,2 hPa 0,0 l/m 2 min 0 min 89 W/m 37,7 km/h (5 Bft)
03.03.2015 08:24 4,0 C 3,3 C 86 % 1017,3 hPa 0,0 l/m 2 min 0 min 88 W/m 31,4 km/h (5 Bft)
03.03.2015 08:26 4,0 C 3,3 C 86 % 1017,4 hPa 0,0 l/m 0 min 0 min 80 W/m 41,8 km/h (6 Bft)
03.03.2015 08:28 4,1 C 3,3 C 86 % 1017,3 hPa 0,0 l/m 0 min 0 min 77 W/m 29,3 km/h (5 Bft)
03.03.2015 08:30 4,1 C 3,3 C 86 % 1017,3 hPa 0,0 l/m 0 min 0 min 74 W/m 33,5 km/h (5 Bft)
03.03.2015 08:32 4,1 C 3,3 C 86 % 1017,3 hPa 0,0 l/m 0 min 0 min 66 W/m 23,0 km/h (4 Bft)
03.03.2015 08:34 4,2 C 3,3 C 85 % 1017,4 hPa 0,0 l/m 0 min 0 min 61 W/m 27,2 km/h (4 Bft)
03.03.2015 08:36 4,2 C 3,3 C 85 % 1017,3 hPa 0,0 l/m 0 min 0 min 57 W/m 29,3 km/h (5 Bft)
03.03.2015 08:38 4,2 C 3,3 C 85 % 1017,4 hPa 0,0 l/m 0 min 0 min 63 W/m 25,1 km/h (4 Bft)
03.03.2015 08:40 4,2 C 3,3 C 85 % 1017,3 hPa 0,0 l/m 0 min 0 min 73 W/m 39,7 km/h (6 Bft)
03.03.2015 08:42 4,2 C 3,3 C 85 % 1017,2 hPa 0,0 l/m 0 min 0 min 82 W/m 29,3 km/h (5 Bft)
03.03.2015 08:44 4,2 C 3,3 C 85 % 1017,2 hPa 0,0 l/m 0 min 0 min 91 W/m 29,3 km/h (5 Bft)
03.03.2015 08:46 4,3 C 3,3 C 85 % 1017,2 hPa 0,0 l/m 0 min 0 min 92 W/m 27,2 km/h (4 Bft)
03.03.2015 08:48 4,3 C 3,3 C 85 % 1017,2 hPa 0,0 l/m 0 min 0 min 102 W/m 31,4 km/h (5 Bft)
03.03.2015 08:50 4,3 C 3,3 C 85 % 1017,2 hPa 0,0 l/m 0 min 0 min 112 W/m 33,5 km/h (5 Bft)
03.03.2015 08:52 4,3 C 3,3 C 85 % 1017,4 hPa 0,0 l/m 2 min 0 min 122 W/m 25,1 km/h (4 Bft)
03.03.2015 08:54 4,3 C 3,3 C 85 % 1017,4 hPa 0,0 l/m 2 min 0 min 135 W/m 27,2 km/h (4 Bft)
03.03.2015 08:56 4,4 C 3,3 C 85 % 1017,4 hPa 0,0 l/m 2 min 0 min 148 W/m 37,7 km/h (5 Bft)
03.03.2015 08:58 4,4 C 3,9 C 85 % 1017,4 hPa 0,0 l/m 2 min 0 min 151 W/m 18,8 km/h (3 Bft)
03.03.2015 09:00 4,4 C 3,9 C 84 % 1017,4 hPa 0,0 l/m 2 min 0 min 147 W/m 27,2 km/h (4 Bft)
03.03.2015 09:02 4,4 C 3,9 C 84 % 1017,3 hPa 0,0 l/m 2 min 0 min 151 W/m 27,2 km/h (4 Bft)
03.03.2015 09:04 4,4 C 3,9 C 84 % 1017,4 hPa 0,0 l/m 2 min 0 min 150 W/m 35,6 km/h (5 Bft)
03.03.2015 09:06 4,5 C 3,9 C 84 % 1017,4 hPa 0,0 l/m 2 min 0 min 146 W/m 20,9 km/h (4 Bft)
03.03.2015 09:08 4,5 C 3,9 C 84 % 1017,4 hPa 0,0 l/m 0 min 0 min 129 W/m 25,1 km/h (4 Bft)
03.03.2015 09:10 4,6 C 3,9 C 84 % 1017,4 hPa 0,0 l/m 0 min 0 min 127 W/m 33,5 km/h (5 Bft)
03.03.2015 09:12 4,6 C 3,9 C 84 % 1017,5 hPa 0,0 l/m 0 min 0 min 130 W/m 31,4 km/h (5 Bft)
03.03.2015 09:14 4,6 C 3,9 C 84 % 1017,4 hPa 0,0 l/m 0 min 0 min 125 W/m 29,3 km/h (5 Bft)
03.03.2015 09:16 4,6 C 3,9 C 84 % 1017,4 hPa 0,0 l/m 0 min 0 min 115 W/m 25,1 km/h (4 Bft)
03.03.2015 09:18 4,6 C 3,9 C 84 % 1017,4 hPa 0,0 l/m 0 min 0 min 108 W/m 27,2 km/h (4 Bft)
03.03.2015 09:20 4,7 C 3,9 C 83 % 1017,4 hPa 0,0 l/m 0 min 0 min 105 W/m 29,3 km/h (5 Bft)
03.03.2015 09:22 4,7 C 3,9 C 83 % 1017,4 hPa 0,0 l/m 0 min 0 min 112 W/m 29,3 km/h (5 Bft)
03.03.2015 09:24 4,7 C 3,9 C 83 % 1017,4 hPa 0,0 l/m 0 min 0 min 124 W/m 31,4 km/h (5 Bft)
03.03.2015 09:26 4,7 C 3,9 C 83 % 1017,4 hPa 0,0 l/m 0 min 0 min 133 W/m 27,2 km/h (4 Bft)
03.03.2015 09:28 4,7 C 3,9 C 83 % 1017,4 hPa 0,0 l/m 0 min 0 min 132 W/m 23,0 km/h (4 Bft)
03.03.2015 09:30 4,8 C 3,9 C 83 % 1017,5 hPa 0,0 l/m 0 min 0 min 130 W/m 29,3 km/h (5 Bft)
03.03.2015 09:32 4,8 C 3,9 C 83 % 1017,4 hPa 0,0 l/m 0 min 0 min 139 W/m 29,3 km/h (5 Bft)
03.03.2015 09:34 4,8 C 4,4 C 83 % 1017,4 hPa 0,0 l/m 0 min 0 min 157 W/m 37,7 km/h (5 Bft)
03.03.2015 09:36 4,8 C 4,4 C 83 % 1017,4 hPa 0,0 l/m 2 min 0 min 166 W/m 25,1 km/h (4 Bft)
03.03.2015 09:38 4,9 C 4,4 C 83 % 1017,4 hPa 0,0 l/m 2 min 0 min 166 W/m 31,4 km/h (5 Bft)
03.03.2015 09:40 4,9 C 4,4 C 83 % 1017,4 hPa 0,0 l/m 0 min 0 min 163 W/m 27,2 km/h (4 Bft)
03.03.2015 09:42 4,9 C 4,4 C 82 % 1017,4 hPa 0,0 l/m 0 min 0 min 159 W/m 27,2 km/h (4 Bft)
03.03.2015 09:43 4,9 C 4,4 C 82 % 1017,4 hPa 0,0 l/m 1 min 0 min 171 W/m 18,8 km/h (3 Bft)
03.03.2015 09:44 5,0 C 4,4 C 82 % 1017,4 hPa 0,0 l/m 1 min 0 min 183 W/m 27,2 km/h (4 Bft)
03.03.2015 09:46 5,1 C 4,4 C 82 % 1017,4 hPa 0,0 l/m 2 min 0 min 183 W/m 31,4 km/h (5 Bft)
03.03.2015 09:48 5,1 C 4,4 C 82 % 1017,4 hPa 0,0 l/m 2 min 0 min 334 W/m 35,6 km/h (5 Bft)
03.03.2015 09:50 5,2 C 4,4 C 82 % 1017,4 hPa 0,0 l/m 2 min 0 min 368 W/m 31,4 km/h (5 Bft)
03.03.2015 09:52 5,2 C 5,0 C 82 % 1017,4 hPa 0,0 l/m 2 min 0 min 291 W/m 33,5 km/h (5 Bft)
03.03.2015 09:54 5,3 C 5,0 C 82 % 1017,4 hPa 0,0 l/m 2 min 0 min 213 W/m 35,6 km/h (5 Bft)
03.03.2015 09:56 5,4 C 5,0 C 81 % 1017,5 hPa 0,0 l/m 2 min 0 min 211 W/m 35,6 km/h (5 Bft)
03.03.2015 09:58 5,4 C 5,0 C 81 % 1017,5 hPa 0,0 l/m 2 min 0 min 187 W/m 27,2 km/h (4 Bft)
03.03.2015 10:00 5,5 C 5,0 C 81 % 1017,5 hPa 0,0 l/m 2 min 0 min 195 W/m 27,2 km/h (4 Bft)
03.03.2015 10:02 5,5 C 5,0 C 81 % 1017,4 hPa 0,0 l/m 2 min 0 min 204 W/m 25,1 km/h (4 Bft)
03.03.2015 10:06 5,6 C 5,0 C 81 % 1017,4 hPa 0,0 l/m 2 min 0 min 227 W/m 37,7 km/h (5 Bft)
03.03.2015 10:08 5,6 C 5,0 C 81 % 1017,3 hPa 0,0 l/m 2 min 0 min 236 W/m 31,4 km/h (5 Bft)
03.03.2015 10:10 5,7 C 5,0 C 81 % 1017,3 hPa 0,0 l/m 2 min 0 min 236 W/m 31,4 km/h (5 Bft)
03.03.2015 10:12 5,7 C 5,6 C 81 % 1017,3 hPa 0,0 l/m 2 min 0 min 238 W/m 33,5 km/h (5 Bft)
03.03.2015 10:14 5,7 C 5,0 C 80 % 1017,3 hPa 0,0 l/m 2 min 0 min 236 W/m 27,2 km/h (4 Bft)
03.03.2015 10:16 5,7 C 5,0 C 80 % 1017,3 hPa 0,0 l/m 2 min 0 min 244 W/m 37,7 km/h (5 Bft)
03.03.2015 10:18 5,8 C 5,0 C 80 % 1017,3 hPa 0,0 l/m 2 min 0 min 270 W/m 35,6 km/h (5 Bft)
03.03.2015 10:20 5,8 C 5,0 C 80 % 1017,3 hPa 0,0 l/m 2 min 0 min 282 W/m 41,8 km/h (6 Bft)
03.03.2015 10:22 5,8 C 5,6 C 80 % 1017,3 hPa 0,0 l/m 2 min 0 min 294 W/m 25,1 km/h (4 Bft)
03.03.2015 10:24 5,8 C 5,6 C 80 % 1017,2 hPa 0,0 l/m 2 min 0 min 295 W/m 37,7 km/h (5 Bft)
03.03.2015 10:26 5,9 C 5,6 C 80 % 1017,1 hPa 0,0 l/m 2 min 0 min 303 W/m 29,3 km/h (5 Bft)
03.03.2015 10:28 5,9 C 5,6 C 80 % 1017,1 hPa 0,0 l/m 2 min 0 min 284 W/m 25,1 km/h (4 Bft)
03.03.2015 10:30 5,9 C 5,6 C 80 % 1017,1 hPa 0,0 l/m 2 min 0 min 218 W/m 27,2 km/h (4 Bft)
03.03.2015 10:32 5,9 C 5,6 C 80 % 1017,0 hPa 0,0 l/m 0 min 0 min 167 W/m 35,6 km/h (5 Bft)
03.03.2015 10:34 5,9 C 5,0 C 80 % 1017,0 hPa 0,0 l/m 0 min 0 min 148 W/m 31,4 km/h (5 Bft)
03.03.2015 10:36 5,9 C 5,0 C 80 % 1016,9 hPa 0,0 l/m 0 min 0 min 167 W/m 29,3 km/h (5 Bft)
03.03.2015 10:38 5,9 C 5,6 C 80 % 1016,9 hPa 0,0 l/m 0 min 0 min 189 W/m 29,3 km/h (5 Bft)
03.03.2015 10:40 5,9 C 5,6 C 79 % 1016,9 hPa 0,0 l/m 0 min 0 min 189 W/m 31,4 km/h (5 Bft)
03.03.2015 10:42 5,9 C 5,6 C 79 % 1016,8 hPa 0,0 l/m 0 min 0 min 205 W/m 25,1 km/h (4 Bft)
03.03.2015 10:44 6,0 C 5,6 C 79 % 1016,7 hPa 0,0 l/m 2 min 0 min 305 W/m 25,1 km/h (4 Bft)
03.03.2015 10:46 6,0 C 5,6 C 79 % 1016,8 hPa 0,0 l/m 2 min 0 min 375 W/m 20,9 km/h (4 Bft)
03.03.2015 10:48 6,1 C 5,6 C 79 % 1016,8 hPa 0,0 l/m 2 min 0 min 355 W/m 27,2 km/h (4 Bft)
03.03.2015 10:50 6,2 C 5,6 C 79 % 1016,8 hPa 0,0 l/m 2 min 0 min 308 W/m 23,0 km/h (4 Bft)
03.03.2015 10:52 6,2 C 5,6 C 78 % 1016,8 hPa 0,0 l/m 2 min 0 min 311 W/m 27,2 km/h (4 Bft)
03.03.2015 10:54 6,2 C 6,1 C 78 % 1016,7 hPa 0,0 l/m 2 min 0 min 349 W/m 25,1 km/h (4 Bft)
03.03.2015 10:56 6,3 C 6,1 C 78 % 1016,7 hPa 0,0 l/m 2 min 0 min 374 W/m 27,2 km/h (4 Bft)
03.03.2015 10:58 6,4 C 6,1 C 78 % 1016,6 hPa 0,0 l/m 2 min 0 min 399 W/m 29,3 km/h (5 Bft)
03.03.2015 11:00 6,4 C 6,7 C 77 % 1016,6 hPa 0,0 l/m 2 min 0 min 444 W/m 25,1 km/h (4 Bft)
03.03.2015 11:02 6,6 C 6,7 C 77 % 1016,6 hPa 0,0 l/m 2 min 0 min 455 W/m 20,9 km/h (4 Bft)
03.03.2015 11:04 6,7 C 6,7 C 77 % 1016,6 hPa 0,0 l/m 2 min 0 min 349 W/m 27,2 km/h (4 Bft)
03.03.2015 11:06 6,8 C 6,7 C 76 % 1016,6 hPa 0,0 l/m 2 min 0 min 341 W/m 31,4 km/h (5 Bft)
03.03.2015 11:08 6,8 C 6,7 C 76 % 1016,5 hPa 0,0 l/m 2 min 0 min 341 W/m 18,8 km/h (3 Bft)
03.03.2015 11:10 6,9 C 6,7 C 76 % 1016,5 hPa 0,0 l/m 2 min 0 min 355 W/m 25,1 km/h (4 Bft)
03.03.2015 11:12 7,0 C 7,2 C 76 % 1016,5 hPa 0,0 l/m 2 min 0 min 368 W/m 23,0 km/h (4 Bft)
03.03.2015 11:14 7,1 C 7,2 C 76 % 1016,4 hPa 0,0 l/m 2 min 0 min 357 W/m 25,1 km/h (4 Bft)
03.03.2015 11:16 7,1 C 7,2 C 75 % 1016,4 hPa 0,0 l/m 2 min 0 min 327 W/m 23,0 km/h (4 Bft)
03.03.2015 11:18 7,2 C 7,2 C 75 % 1016,5 hPa 0,0 l/m 2 min 0 min 323 W/m 20,9 km/h (4 Bft)
03.03.2015 11:20 7,2 C 7,2 C 75 % 1016,4 hPa 0,0 l/m 2 min 0 min 307 W/m 16,7 km/h (3 Bft)
03.03.2015 11:22 7,3 C 7,2 C 75 % 1016,4 hPa 0,0 l/m 2 min 0 min 294 W/m 23,0 km/h (4 Bft)
03.03.2015 11:24 7,3 C 7,2 C 75 % 1016,4 hPa 0,0 l/m 2 min 0 min 288 W/m 31,4 km/h (5 Bft)
03.03.2015 11:26 7,4 C 7,2 C 73 % 1016,4 hPa 0,0 l/m 2 min 0 min 286 W/m 48,1 km/h (6 Bft)
03.03.2015 11:28 7,4 C 7,2 C 72 % 1016,4 hPa 0,0 l/m 2 min 0 min 299 W/m 37,7 km/h (5 Bft)
03.03.2015 11:30 7,4 C 7,2 C 72 % 1016,4 hPa 0,0 l/m 2 min 0 min 374 W/m 33,5 km/h (5 Bft)
03.03.2015 11:32 7,6 C 7,2 C 72 % 1016,4 hPa 0,0 l/m 2 min 0 min 452 W/m 50,2 km/h (7 Bft)
03.03.2015 11:34 7,6 C 7,2 C 72 % 1016,4 hPa 0,0 l/m 2 min 0 min 380 W/m 33,5 km/h (5 Bft)
03.03.2015 11:36 7,7 C 7,2 C 71 % 1016,3 hPa 0,0 l/m 2 min 0 min 363 W/m 46,0 km/h (6 Bft)
03.03.2015 11:38 7,7 C 7,2 C 71 % 1016,2 hPa 0,0 l/m 2 min 0 min 360 W/m 46,0 km/h (6 Bft)
03.03.2015 11:40 7,7 C 7,2 C 71 % 1016,4 hPa 0,0 l/m 2 min 0 min 304 W/m 37,7 km/h (5 Bft)
03.03.2015 11:42 7,8 C 7,2 C 71 % 1016,4 hPa 0,0 l/m 2 min 0 min 300 W/m 39,7 km/h (6 Bft)
03.03.2015 11:44 7,8 C 7,2 C 71 % 1016,4 hPa 0,0 l/m 2 min 0 min 286 W/m 46,0 km/h (6 Bft)
03.03.2015 11:46 7,8 C 7,2 C 71 % 1016,3 hPa 0,0 l/m 2 min 0 min 268 W/m 50,2 km/h (7 Bft)
03.03.2015 11:48 7,7 C 7,2 C 70 % 1016,3 hPa 0,0 l/m 2 min 0 min 332 W/m 46,0 km/h (6 Bft)
03.03.2015 11:50 7,7 C 7,2 C 71 % 1016,4 hPa 0,0 l/m 2 min 0 min 442 W/m 39,7 km/h (6 Bft)
03.03.2015 11:52 7,7 C 7,2 C 70 % 1016,4 hPa 0,0 l/m 2 min 0 min 400 W/m 52,3 km/h (7 Bft)
03.03.2015 11:54 7,7 C 7,2 C 71 % 1016,3 hPa 0,0 l/m 2 min 0 min 365 W/m 39,7 km/h (6 Bft)
03.03.2015 11:56 7,7 C 7,2 C 72 % 1016,2 hPa 0,0 l/m 2 min 0 min 291 W/m 31,4 km/h (5 Bft)
03.03.2015 11:58 7,7 C 7,2 C 71 % 1016,1 hPa 0,0 l/m 0 min 0 min 246 W/m 25,1 km/h (4 Bft)
03.03.2015 12:00 7,7 C 7,2 C 70 % 1016,2 hPa 0,0 l/m 0 min 0 min 225 W/m 37,7 km/h (5 Bft)
03.03.2015 12:02 7,6 C 7,2 C 70 % 1016,2 hPa 0,0 l/m 0 min 0 min 171 W/m 27,2 km/h (4 Bft)
03.03.2015 12:04 7,6 C 6,7 C 70 % 1016,1 hPa 0,0 l/m 0 min 0 min 185 W/m 37,7 km/h (5 Bft)
03.03.2015 12:06 7,5 C 6,7 C 69 % 1016,0 hPa 0,0 l/m 0 min 0 min 238 W/m 33,5 km/h (5 Bft)
03.03.2015 12:08 7,4 C 6,7 C 69 % 1015,9 hPa 0,0 l/m 0 min 0 min 235 W/m 41,8 km/h (6 Bft)
03.03.2015 12:10 7,4 C 6,7 C 69 % 1015,9 hPa 0,0 l/m 0 min 0 min 248 W/m 37,7 km/h (5 Bft)
03.03.2015 12:12 7,4 C 7,2 C 69 % 1015,9 hPa 0,0 l/m 2 min 0 min 264 W/m 39,7 km/h (6 Bft)
03.03.2015 12:14 7,5 C 7,2 C 69 % 1015,9 hPa 0,0 l/m 2 min 0 min 300 W/m 35,6 km/h (5 Bft)
03.03.2015 12:16 7,6 C 7,2 C 70 % 1015,7 hPa 0,0 l/m 2 min 0 min 414 W/m 27,2 km/h (4 Bft)
03.03.2015 12:18 7,7 C 7,8 C 70 % 1015,8 hPa 0,0 l/m 2 min 0 min 405 W/m 33,5 km/h (5 Bft)
03.03.2015 12:20 7,8 C 7,8 C 69 % 1015,6 hPa 0,0 l/m 2 min 0 min 323 W/m 20,9 km/h (4 Bft)
03.03.2015 12:22 7,9 C 7,8 C 69 % 1015,6 hPa 0,0 l/m 2 min 0 min 294 W/m 39,7 km/h (6 Bft)
03.03.2015 12:24 7,8 C 7,2 C 68 % 1015,5 hPa 0,0 l/m 2 min 0 min 274 W/m 37,7 km/h (5 Bft)
03.03.2015 12:26 7,8 C 7,2 C 68 % 1015,4 hPa 0,0 l/m 2 min 0 min 310 W/m 31,4 km/h (5 Bft)
03.03.2015 12:28 7,9 C 7,8 C 69 % 1015,4 hPa 0,0 l/m 2 min 0 min 381 W/m 33,5 km/h (5 Bft)
03.03.2015 12:30 8,0 C 7,8 C 69 % 1015,3 hPa 0,0 l/m 2 min 0 min 374 W/m 20,9 km/h (4 Bft)
03.03.2015 12:32 8,2 C 8,3 C 69 % 1015,3 hPa 0,0 l/m 2 min 0 min 377 W/m 31,4 km/h (5 Bft)
03.03.2015 12:34 8,3 C 8,3 C 68 % 1015,3 hPa 0,0 l/m 2 min 0 min 398 W/m 27,2 km/h (4 Bft)
03.03.2015 12:36 8,4 C 8,3 C 68 % 1015,2 hPa 0,0 l/m 2 min 0 min 339 W/m 46,0 km/h (6 Bft)
03.03.2015 12:38 8,3 C 7,8 C 67 % 1015,3 hPa 0,0 l/m 0 min 0 min 262 W/m 33,5 km/h (5 Bft)
03.03.2015 12:40 8,3 C 7,8 C 67 % 1015,2 hPa 0,0 l/m 0 min 0 min 210 W/m 50,2 km/h (7 Bft)
03.03.2015 12:42 8,2 C 7,8 C 67 % 1015,2 hPa 0,0 l/m 0 min 0 min 196 W/m 35,6 km/h (5 Bft)
03.03.2015 12:44 8,2 C 7,2 C 67 % 1015,2 hPa 0,0 l/m 0 min 0 min 217 W/m 37,7 km/h (5 Bft)
03.03.2015 12:46 8,1 C 7,2 C 67 % 1015,1 hPa 0,0 l/m 0 min 0 min 203 W/m 35,6 km/h (5 Bft)
03.03.2015 12:48 8,1 C 7,2 C 68 % 1015,1 hPa 0,0 l/m 0 min 0 min 219 W/m 35,6 km/h (5 Bft)
03.03.2015 12:50 8,1 C 7,2 C 67 % 1015,2 hPa 0,0 l/m 0 min 0 min 262 W/m 35,6 km/h (5 Bft)
03.03.2015 12:52 8,1 C 7,2 C 67 % 1015,1 hPa 0,0 l/m 2 min 0 min 308 W/m 33,5 km/h (5 Bft)
03.03.2015 12:54 8,2 C 7,8 C 68 % 1015,1 hPa 0,0 l/m 2 min 0 min 356 W/m 35,6 km/h (5 Bft)
03.03.2015 12:56 8,3 C 8,3 C 68 % 1015,1 hPa 0,0 l/m 2 min 0 min 363 W/m 35,6 km/h (5 Bft)
03.03.2015 12:58 8,4 C 8,3 C 68 % 1015,0 hPa 0,0 l/m 2 min 0 min 312 W/m 33,5 km/h (5 Bft)
03.03.2015 13:00 8,5 C 8,3 C 67 % 1015,1 hPa 0,0 l/m 2 min 0 min 304 W/m 52,3 km/h (7 Bft)
03.03.2015 13:02 8,6 C 8,3 C 67 % 1014,9 hPa 0,0 l/m 2 min 0 min 315 W/m 41,8 km/h (6 Bft)
03.03.2015 13:04 8,6 C 8,3 C 67 % 1014,8 hPa 0,0 l/m 2 min 0 min 389 W/m 41,8 km/h (6 Bft)
03.03.2015 13:06 8,7 C 8,3 C 67 % 1014,8 hPa 0,0 l/m 2 min 0 min 413 W/m 35,6 km/h (5 Bft)
03.03.2015 13:08 8,7 C 8,3 C 67 % 1014,8 hPa 0,0 l/m 2 min 0 min 389 W/m 46,0 km/h (6 Bft)
03.03.2015 13:10 8,8 C 8,3 C 66 % 1014,8 hPa 0,0 l/m 2 min 0 min 499 W/m 48,1 km/h (6 Bft)
03.03.2015 13:12 8,9 C 8,9 C 66 % 1014,7 hPa 0,0 l/m 2 min 0 min 496 W/m 37,7 km/h (5 Bft)
03.03.2015 13:14 9,0 C 8,9 C 66 % 1014,6 hPa 0,0 l/m 2 min 0 min 406 W/m 39,7 km/h (6 Bft)
03.03.2015 13:16 9,2 C 8,9 C 66 % 1014,5 hPa 0,0 l/m 2 min 0 min 423 W/m 33,5 km/h (5 Bft)
03.03.2015 13:18 9,2 C 8,9 C 65 % 1014,5 hPa 0,0 l/m 2 min 0 min 490 W/m 35,6 km/h (5 Bft)
03.03.2015 13:20 9,3 C 8,9 C 65 % 1014,4 hPa 0,0 l/m 2 min 0 min 424 W/m 33,5 km/h (5 Bft)
03.03.2015 13:22 9,3 C 8,9 C 65 % 1014,4 hPa 0,0 l/m 2 min 0 min 400 W/m 39,7 km/h (6 Bft)
03.03.2015 13:24 9,3 C 8,9 C 65 % 1014,5 hPa 0,0 l/m 2 min 0 min 343 W/m 50,2 km/h (7 Bft)
03.03.2015 13:26 9,2 C 8,9 C 64 % 1014,4 hPa 0,0 l/m 2 min 0 min 280 W/m 31,4 km/h (5 Bft)
03.03.2015 13:28 9,1 C 8,3 C 65 % 1014,3 hPa 0,0 l/m 2 min 0 min 269 W/m 46,0 km/h (6 Bft)
03.03.2015 13:30 9,1 C 8,3 C 65 % 1014,3 hPa 0,0 l/m 2 min 0 min 275 W/m 35,6 km/h (5 Bft)
03.03.2015 13:32 9,1 C 8,9 C 65 % 1014,3 hPa 0,0 l/m 2 min 0 min 358 W/m 37,7 km/h (5 Bft)
03.03.2015 13:34 9,2 C 8,9 C 64 % 1014,2 hPa 0,0 l/m 2 min 0 min 363 W/m 39,7 km/h (6 Bft)
03.03.2015 13:36 9,2 C 8,9 C 64 % 1014,1 hPa 0,0 l/m 2 min 0 min 388 W/m 43,9 km/h (6 Bft)
03.03.2015 13:38 9,3 C 8,9 C 64 % 1014,1 hPa 0,0 l/m 2 min 0 min 426 W/m 33,5 km/h (5 Bft)
03.03.2015 13:40 9,4 C 8,9 C 64 % 1014,1 hPa 0,0 l/m 2 min 0 min 406 W/m 37,7 km/h (5 Bft)
03.03.2015 13:42 9,5 C 9,4 C 64 % 1014,2 hPa 0,0 l/m 2 min 0 min 409 W/m 37,7 km/h (5 Bft)
03.03.2015 13:44 9,6 C 8,9 C 63 % 1014,1 hPa 0,0 l/m 2 min 0 min 407 W/m 48,1 km/h (6 Bft)
03.03.2015 13:46 9,6 C 8,9 C 63 % 1014,0 hPa 0,0 l/m 2 min 0 min 420 W/m 46,0 km/h (6 Bft)
03.03.2015 13:48 9,6 C 8,9 C 63 % 1014,1 hPa 0,0 l/m 0 min 0 min 248 W/m 33,5 km/h (5 Bft)
03.03.2015 13:50 9,5 C 8,9 C 63 % 1014,2 hPa 0,0 l/m 0 min 0 min 200 W/m 35,6 km/h (5 Bft)
03.03.2015 13:52 9,4 C 8,9 C 62 % 1014,1 hPa 0,0 l/m 0 min 0 min 247 W/m 56,5 km/h (7 Bft)
03.03.2015 13:54 9,4 C 8,3 C 63 % 1014,2 hPa 0,0 l/m 0 min 0 min 238 W/m 48,1 km/h (6 Bft)
03.03.2015 13:56 9,3 C 8,3 C 63 % 1014,1 hPa 0,0 l/m 0 min 0 min 204 W/m 62,8 km/h (8 Bft)
03.03.2015 13:58 9,3 C 8,3 C 62 % 1014,5 hPa 0,0 l/m 0 min 0 min 192 W/m 52,3 km/h (7 Bft)
03.03.2015 14:00 9,2 C 8,3 C 63 % 1014,2 hPa 0,0 l/m 0 min 0 min 216 W/m 56,5 km/h (7 Bft)
03.03.2015 14:02 9,2 C 8,3 C 63 % 1014,0 hPa 0,0 l/m 0 min 0 min 201 W/m 60,7 km/h (7 Bft)
03.03.2015 14:04 9,2 C 8,3 C 63 % 1014,2 hPa 0,0 l/m 0 min 0 min 175 W/m 52,3 km/h (7 Bft)
03.03.2015 14:06 9,1 C 7,8 C 64 % 1014,4 hPa 0,0 l/m 0 min 0 min 170 W/m 58,6 km/h (7 Bft)
03.03.2015 14:08 8,9 C 7,8 C 66 % 1014,4 hPa 0,0 l/m 0 min 0 min 185 W/m 54,4 km/h (7 Bft)
03.03.2015 14:10 8,8 C 7,2 C 67 % 1014,4 hPa 0,0 l/m 0 min 2 min 185 W/m 56,5 km/h (7 Bft)
03.03.2015 14:12 8,7 C 7,2 C 68 % 1014,3 hPa 0,0 l/m 2 min 2 min 254 W/m 62,8 km/h (8 Bft)
03.03.2015 14:14 8,6 C 6,7 C 68 % 1014,3 hPa 0,0 l/m 0 min 0 min 170 W/m 54,4 km/h (7 Bft)
03.03.2015 14:16 8,6 C 6,7 C 68 % 1014,4 hPa 0,0 l/m 0 min 2 min 100 W/m 58,6 km/h (7 Bft)
03.03.2015 14:18 8,5 C 6,1 C 69 % 1014,4 hPa 0,0 l/m 0 min 0 min 75 W/m 41,8 km/h (6 Bft)
03.03.2015 14:20 8,5 C 6,7 C 70 % 1014,4 hPa 0,0 l/m 0 min 2 min 70 W/m 35,6 km/h (5 Bft)
03.03.2015 14:22 8,4 C 6,1 C 71 % 1014,5 hPa 0,0 l/m 0 min 2 min 90 W/m 41,8 km/h (6 Bft)
03.03.2015 14:24 8,3 C 6,1 C 71 % 1014,6 hPa 0,0 l/m 0 min 2 min 110 W/m 41,8 km/h (6 Bft)
03.03.2015 14:26 8,2 C 6,1 C 73 % 1014,6 hPa 0,0 l/m 0 min 2 min 78 W/m 58,6 km/h (7 Bft)
03.03.2015 14:28 8,1 C 5,6 C 74 % 1014,8 hPa 0,0 l/m 0 min 2 min 58 W/m 43,9 km/h (6 Bft)
03.03.2015 14:30 7,8 C 5,0 C 75 % 1014,7 hPa 0,0 l/m 0 min 2 min 86 W/m 52,3 km/h (7 Bft)
03.03.2015 14:32 7,6 C 5,0 C 76 % 1014,8 hPa 0,0 l/m 0 min 2 min 84 W/m 48,1 km/h (6 Bft)
03.03.2015 14:34 7,4 C 4,4 C 78 % 1014,8 hPa 0,2 l/m 0 min 2 min 67 W/m 37,7 km/h (5 Bft)
03.03.2015 14:36 7,2 C 4,4 C 79 % 1014,9 hPa 0,0 l/m 0 min 2 min 62 W/m 58,6 km/h (7 Bft)
03.03.2015 14:38 7,0 C 4,4 C 80 % 1014,9 hPa 0,0 l/m 0 min 2 min 61 W/m 60,7 km/h (7 Bft)
03.03.2015 14:40 6,8 C 4,4 C 81 % 1015,0 hPa 0,0 l/m 0 min 2 min 56 W/m 56,5 km/h (7 Bft)
03.03.2015 14:42 6,6 C 3,9 C 82 % 1014,9 hPa 0,0 l/m 0 min 2 min 51 W/m 58,6 km/h (7 Bft)
03.03.2015 14:44 6,4 C 3,9 C 83 % 1014,9 hPa 0,2 l/m 0 min 2 min 69 W/m 46,0 km/h (6 Bft)
03.03.2015 14:46 6,3 C 3,9 C 84 % 1014,9 hPa 0,2 l/m 0 min 2 min 98 W/m 41,8 km/h (6 Bft)
03.03.2015 14:48 6,2 C 3,9 C 85 % 1014,9 hPa 0,0 l/m 0 min 2 min 97 W/m 48,1 km/h (6 Bft)
03.03.2015 14:50 6,0 C 3,9 C 86 % 1014,9 hPa 0,0 l/m 0 min 2 min 87 W/m 41,8 km/h (6 Bft)
03.03.2015 14:52 5,9 C 3,9 C 87 % 1014,9 hPa 0,0 l/m 0 min 2 min 81 W/m 35,6 km/h (5 Bft)
03.03.2015 14:54 5,8 C 3,9 C 87 % 1014,9 hPa 0,0 l/m 0 min 2 min 83 W/m 31,4 km/h (5 Bft)
03.03.2015 14:56 5,8 C 3,9 C 88 % 1014,9 hPa 0,0 l/m 0 min 2 min 88 W/m 33,5 km/h (5 Bft)
03.03.2015 14:58 5,7 C 3,9 C 88 % 1014,9 hPa 0,0 l/m 0 min 2 min 79 W/m 39,7 km/h (6 Bft)
03.03.2015 15:00 5,7 C 3,9 C 89 % 1014,9 hPa 0,2 l/m 0 min 2 min 57 W/m 25,1 km/h (4 Bft)
03.03.2015 15:02 5,7 C 3,9 C 89 % 1014,9 hPa 0,0 l/m 0 min 2 min 44 W/m 31,4 km/h (5 Bft)
03.03.2015 15:04 5,7 C 3,9 C 89 % 1014,8 hPa 0,0 l/m 0 min 2 min 48 W/m 27,2 km/h (4 Bft)
03.03.2015 15:06 5,7 C 3,9 C 90 % 1014,8 hPa 0,0 l/m 0 min 2 min 55 W/m 27,2 km/h (4 Bft)
03.03.2015 15:08 5,7 C 3,9 C 90 % 1014,8 hPa 0,2 l/m 0 min 2 min 49 W/m 31,4 km/h (5 Bft)
03.03.2015 15:10 5,7 C 3,9 C 90 % 1014,8 hPa 0,0 l/m 0 min 2 min 56 W/m 33,5 km/h (5 Bft)
03.03.2015 15:12 5,7 C 3,9 C 90 % 1014,8 hPa 0,0 l/m 0 min 2 min 56 W/m 29,3 km/h (5 Bft)
03.03.2015 15:14 5,7 C 3,9 C 90 % 1014,7 hPa 0,0 l/m 0 min 2 min 70 W/m 25,1 km/h (4 Bft)
03.03.2015 15:16 5,7 C 3,9 C 91 % 1014,6 hPa 0,0 l/m 0 min 2 min 88 W/m 23,0 km/h (4 Bft)
03.03.2015 15:18 5,7 C 3,9 C 91 % 1014,6 hPa 0,2 l/m 0 min 2 min 70 W/m 20,9 km/h (4 Bft)
03.03.2015 15:20 5,7 C 4,4 C 91 % 1014,6 hPa 0,0 l/m 0 min 2 min 72 W/m 25,1 km/h (4 Bft)
03.03.2015 15:22 5,7 C 4,4 C 91 % 1014,6 hPa 0,0 l/m 0 min 2 min 86 W/m 27,2 km/h (4 Bft)
03.03.2015 15:24 5,7 C 4,4 C 91 % 1014,6 hPa 0,0 l/m 0 min 2 min 114 W/m 25,1 km/h (4 Bft)
03.03.2015 15:26 5,8 C 4,4 C 92 % 1014,6 hPa 0,0 l/m 0 min 2 min 101 W/m 33,5 km/h (5 Bft)
03.03.2015 15:28 5,8 C 4,4 C 92 % 1014,6 hPa 0,0 l/m 0 min 0 min 92 W/m 25,1 km/h (4 Bft)
03.03.2015 15:30 5,8 C 4,4 C 92 % 1014,5 hPa 0,0 l/m 0 min 0 min 74 W/m 31,4 km/h (5 Bft)
03.03.2015 15:32 5,8 C 4,4 C 92 % 1014,6 hPa 0,0 l/m 0 min 0 min 78 W/m 27,2 km/h (4 Bft)
03.03.2015 15:34 5,8 C 4,4 C 92 % 1014,5 hPa 0,0 l/m 0 min 0 min 86 W/m 20,9 km/h (4 Bft)
03.03.2015 15:36 5,8 C 4,4 C 92 % 1014,5 hPa 0,0 l/m 0 min 0 min 76 W/m 33,5 km/h (5 Bft)
03.03.2015 15:38 5,9 C 4,4 C 92 % 1014,5 hPa 0,0 l/m 0 min 0 min 91 W/m 23,0 km/h (4 Bft)
03.03.2015 15:40 5,9 C 4,4 C 92 % 1014,5 hPa 0,0 l/m 0 min 0 min 116 W/m 20,9 km/h (4 Bft)
03.03.2015 15:42 5,9 C 5,0 C 93 % 1014,5 hPa 0,0 l/m 0 min 0 min 123 W/m 27,2 km/h (4 Bft)
03.03.2015 15:44 6,0 C 5,0 C 93 % 1014,4 hPa 0,0 l/m 0 min 0 min 79 W/m 23,0 km/h (4 Bft)
03.03.2015 15:46 6,0 C 4,4 C 93 % 1014,5 hPa 0,0 l/m 0 min 0 min 66 W/m 29,3 km/h (5 Bft)
03.03.2015 15:48 6,0 C 5,0 C 93 % 1014,5 hPa 0,0 l/m 0 min 0 min 68 W/m 29,3 km/h (5 Bft)
03.03.2015 15:50 6,1 C 4,4 C 93 % 1014,5 hPa 0,0 l/m 0 min 0 min 68 W/m 23,0 km/h (4 Bft)
03.03.2015 15:52 6,1 C 5,0 C 93 % 1014,5 hPa 0,0 l/m 0 min 0 min 68 W/m 27,2 km/h (4 Bft)
03.03.2015 15:54 6,1 C 5,0 C 93 % 1014,4 hPa 0,0 l/m 0 min 0 min 85 W/m 43,9 km/h (6 Bft)
03.03.2015 15:56 6,1 C 5,0 C 93 % 1014,4 hPa 0,0 l/m 0 min 0 min 78 W/m 37,7 km/h (5 Bft)
03.03.2015 15:58 6,2 C 5,0 C 93 % 1014,5 hPa 0,0 l/m 0 min 0 min 78 W/m 33,5 km/h (5 Bft)
03.03.2015 16:00 6,2 C 5,0 C 93 % 1014,5 hPa 0,0 l/m 0 min 0 min 86 W/m 35,6 km/h (5 Bft)
03.03.2015 16:02 6,2 C 5,0 C 93 % 1014,4 hPa 0,0 l/m 0 min 0 min 98 W/m 39,7 km/h (6 Bft)
03.03.2015 16:04 6,3 C 5,0 C 93 % 1014,4 hPa 0,0 l/m 0 min 0 min 94 W/m 46,0 km/h (6 Bft)
03.03.2015 16:06 6,3 C 5,0 C 92 % 1014,4 hPa 0,0 l/m 0 min 0 min 86 W/m 46,0 km/h (6 Bft)
03.03.2015 16:08 6,3 C 5,0 C 92 % 1014,5 hPa 0,0 l/m 0 min 0 min 68 W/m 31,4 km/h (5 Bft)
03.03.2015 16:10 6,3 C 5,0 C 92 % 1014,5 hPa 0,0 l/m 0 min 0 min 48 W/m 39,7 km/h (6 Bft)
03.03.2015 16:12 6,4 C 5,0 C 92 % 1014,5 hPa 0,0 l/m 0 min 0 min 53 W/m 37,7 km/h (5 Bft)
03.03.2015 16:14 6,4 C 5,0 C 92 % 1014,6 hPa 0,0 l/m 0 min 0 min 64 W/m 33,5 km/h (5 Bft)
03.03.2015 16:16 6,4 C 5,0 C 92 % 1014,8 hPa 0,0 l/m 0 min 0 min 40 W/m 23,0 km/h (4 Bft)
03.03.2015 16:18 6,4 C 5,0 C 92 % 1015,1 hPa 0,0 l/m 0 min 0 min 21 W/m 27,2 km/h (4 Bft)
03.03.2015 16:20 6,4 C 4,4 C 92 % 1015,1 hPa 0,0 l/m 0 min 0 min 10 W/m 41,8 km/h (6 Bft)
03.03.2015 16:22 6,1 C 3,3 C 91 % 1015,2 hPa 0,0 l/m 0 min 2 min 8 W/m 66,9 km/h (8 Bft)
03.03.2015 16:24 5,8 C 2,8 C 90 % 1015,3 hPa 0,2 l/m 0 min 2 min 11 W/m 43,9 km/h (6 Bft)
03.03.2015 16:26 5,5 C 2,2 C 89 % 1015,4 hPa 0,2 l/m 0 min 2 min 10 W/m 41,8 km/h (6 Bft)
03.03.2015 16:28 5,2 C 2,2 C 89 % 1015,3 hPa 0,2 l/m 0 min 2 min 12 W/m 27,2 km/h (4 Bft)
03.03.2015 16:30 4,9 C 2,2 C 89 % 1015,2 hPa 0,2 l/m 0 min 2 min 20 W/m 23,0 km/h (4 Bft)
03.03.2015 16:32 4,7 C 2,2 C 89 % 1015,2 hPa 0,2 l/m 0 min 0 min 28 W/m 35,6 km/h (5 Bft)
03.03.2015 16:34 4,4 C 2,2 C 89 % 1015,2 hPa 0,0 l/m 0 min 0 min 40 W/m 29,3 km/h (5 Bft)
03.03.2015 16:36 4,2 C 1,7 C 89 % 1015,1 hPa 0,0 l/m 0 min 0 min 39 W/m 29,3 km/h (5 Bft)
03.03.2015 16:38 4,1 C 1,7 C 89 % 1015,1 hPa 0,0 l/m 0 min 2 min 26 W/m 31,4 km/h (5 Bft)
03.03.2015 16:40 3,9 C 2,2 C 90 % 1015,0 hPa 0,2 l/m 0 min 2 min 19 W/m 25,1 km/h (4 Bft)
03.03.2015 16:42 3,8 C 1,7 C 90 % 1015,1 hPa 0,0 l/m 0 min 2 min 19 W/m 27,2 km/h (4 Bft)
03.03.2015 16:44 3,7 C 2,2 C 90 % 1014,9 hPa 0,0 l/m 0 min 2 min 20 W/m 31,4 km/h (5 Bft)
03.03.2015 16:46 3,7 C 2,2 C 91 % 1014,8 hPa 0,2 l/m 0 min 2 min 25 W/m 25,1 km/h (4 Bft)
03.03.2015 16:48 3,7 C 2,2 C 91 % 1014,7 hPa 0,0 l/m 0 min 2 min 34 W/m 27,2 km/h (4 Bft)
03.03.2015 16:50 3,6 C 2,2 C 91 % 1014,7 hPa 0,0 l/m 0 min 2 min 35 W/m 29,3 km/h (5 Bft)
03.03.2015 16:52 3,6 C 2,2 C 92 % 1014,6 hPa 0,0 l/m 0 min 2 min 25 W/m 31,4 km/h (5 Bft)
03.03.2015 16:54 3,6 C 2,2 C 92 % 1014,5 hPa 0,0 l/m 0 min 2 min 25 W/m 25,1 km/h (4 Bft)
03.03.2015 16:56 3,7 C 2,2 C 92 % 1014,5 hPa 0,0 l/m 0 min 2 min 29 W/m 27,2 km/h (4 Bft)
03.03.2015 16:58 3,7 C 2,2 C 93 % 1014,5 hPa 0,0 l/m 0 min 2 min 28 W/m 23,0 km/h (4 Bft)
03.03.2015 17:00 3,7 C 2,2 C 92 % 1014,4 hPa 0,0 l/m 0 min 0 min 25 W/m 20,9 km/h (4 Bft)
03.03.2015 17:02 3,7 C 2,2 C 93 % 1014,4 hPa 0,0 l/m 0 min 0 min 38 W/m 29,3 km/h (5 Bft)
03.03.2015 17:04 3,7 C 2,2 C 93 % 1014,5 hPa 0,0 l/m 0 min 0 min 40 W/m 27,2 km/h (4 Bft)
03.03.2015 17:06 3,7 C 2,8 C 93 % 1014,6 hPa 0,0 l/m 0 min 0 min 41 W/m 25,1 km/h (4 Bft)
03.03.2015 17:08 3,7 C 2,8 C 93 % 1014,5 hPa 0,0 l/m 0 min 0 min 43 W/m 23,0 km/h (4 Bft)
03.03.2015 17:10 3,8 C 2,8 C 93 % 1014,5 hPa 0,0 l/m 0 min 0 min 43 W/m 18,8 km/h (3 Bft)
03.03.2015 17:12 3,8 C 2,8 C 93 % 1014,4 hPa 0,0 l/m 0 min 0 min 42 W/m 23,0 km/h (4 Bft)
03.03.2015 17:14 3,8 C 2,8 C 93 % 1014,5 hPa 0,0 l/m 0 min 0 min 46 W/m 25,1 km/h (4 Bft)
03.03.2015 17:16 3,9 C 2,8 C 93 % 1014,4 hPa 0,0 l/m 0 min 0 min 53 W/m 23,0 km/h (4 Bft)
03.03.2015 17:18 3,9 C 2,8 C 94 % 1014,5 hPa 0,0 l/m 0 min 0 min 58 W/m 33,5 km/h (5 Bft)
03.03.2015 17:20 3,9 C 2,8 C 93 % 1014,6 hPa 0,0 l/m 0 min 0 min 52 W/m 25,1 km/h (4 Bft)
03.03.2015 17:22 4,0 C 2,8 C 94 % 1014,6 hPa 0,0 l/m 0 min 0 min 39 W/m 25,1 km/h (4 Bft)
03.03.2015 17:24 4,1 C 2,8 C 94 % 1014,6 hPa 0,0 l/m 0 min 0 min 33 W/m 27,2 km/h (4 Bft)
03.03.2015 17:26 4,1 C 2,8 C 94 % 1014,6 hPa 0,0 l/m 0 min 0 min 38 W/m 29,3 km/h (5 Bft)
03.03.2015 17:28 4,1 C 2,8 C 94 % 1014,5 hPa 0,0 l/m 0 min 0 min 44 W/m 25,1 km/h (4 Bft)
03.03.2015 17:30 4,2 C 2,8 C 94 % 1014,5 hPa 0,0 l/m 0 min 0 min 48 W/m 25,1 km/h (4 Bft)
03.03.2015 17:32 4,2 C 2,8 C 94 % 1014,5 hPa 0,0 l/m 0 min 0 min 43 W/m 29,3 km/h (5 Bft)
03.03.2015 17:34 4,2 C 2,8 C 94 % 1014,6 hPa 0,0 l/m 0 min 0 min 45 W/m 27,2 km/h (4 Bft)
03.03.2015 17:36 4,3 C 2,8 C 94 % 1014,6 hPa 0,0 l/m 0 min 0 min 47 W/m 31,4 km/h (5 Bft)
03.03.2015 17:38 4,3 C 3,3 C 94 % 1014,6 hPa 0,0 l/m 2 min 0 min 46 W/m 33,5 km/h (5 Bft)
03.03.2015 17:40 4,4 C 3,3 C 94 % 1014,6 hPa 0,0 l/m 2 min 0 min 44 W/m 41,8 km/h (6 Bft)
03.03.2015 17:42 4,4 C 3,3 C 94 % 1014,6 hPa 0,0 l/m 2 min 0 min 40 W/m 29,3 km/h (5 Bft)
03.03.2015 17:44 4,4 C 3,3 C 94 % 1014,6 hPa 0,0 l/m 2 min 0 min 41 W/m 29,3 km/h (5 Bft)
03.03.2015 17:46 4,5 C 3,3 C 94 % 1014,7 hPa 0,0 l/m 2 min 0 min 55 W/m 25,1 km/h (4 Bft)
03.03.2015 17:48 4,5 C 3,3 C 93 % 1014,7 hPa 0,0 l/m 2 min 0 min 48 W/m 23,0 km/h (4 Bft)
03.03.2015 17:50 4,6 C 3,3 C 93 % 1014,8 hPa 0,0 l/m 2 min 0 min 30 W/m 31,4 km/h (5 Bft)
03.03.2015 17:52 4,6 C 2,8 C 93 % 1014,8 hPa 0,0 l/m 0 min 0 min 24 W/m 18,8 km/h (3 Bft)
03.03.2015 17:54 4,6 C 2,8 C 93 % 1014,9 hPa 0,0 l/m 0 min 0 min 21 W/m 18,8 km/h (3 Bft)
03.03.2015 17:56 4,6 C 2,8 C 93 % 1014,9 hPa 0,0 l/m 0 min 0 min 21 W/m 25,1 km/h (4 Bft)
03.03.2015 17:58 4,6 C 2,8 C 93 % 1014,9 hPa 0,0 l/m 2 min 0 min 20 W/m 23,0 km/h (4 Bft)
03.03.2015 18:00 4,6 C 2,8 C 93 % 1015,0 hPa 0,0 l/m 2 min 0 min 19 W/m 16,7 km/h (3 Bft)
03.03.2015 18:02 4,6 C 2,8 C 93 % 1015,1 hPa 0,0 l/m 2 min 0 min 17 W/m 18,8 km/h (3 Bft)
03.03.2015 18:04 4,6 C 2,8 C 93 % 1015,1 hPa 0,0 l/m 2 min 0 min 15 W/m 18,8 km/h (3 Bft)
03.03.2015 18:06 4,6 C 2,8 C 93 % 1015,1 hPa 0,0 l/m 2 min 0 min 14 W/m 14,6 km/h (3 Bft)
03.03.2015 18:08 4,6 C 2,8 C 93 % 1015,1 hPa 0,0 l/m 0 min 0 min 12 W/m 18,8 km/h (3 Bft)
03.03.2015 18:10 4,6 C 2,8 C 93 % 1015,1 hPa 0,0 l/m 0 min 0 min 10 W/m 18,8 km/h (3 Bft)
03.03.2015 18:12 4,6 C 2,8 C 93 % 1015,1 hPa 0,0 l/m 0 min 0 min 8 W/m 12,6 km/h (3 Bft)
03.03.2015 18:14 4,6 C 2,8 C 93 % 1015,1 hPa 0,0 l/m 0 min 0 min 7 W/m 18,8 km/h (3 Bft)
03.03.2015 18:16 4,5 C 2,8 C 93 % 1015,1 hPa 0,0 l/m 0 min 0 min 6 W/m 16,7 km/h (3 Bft)
03.03.2015 18:18 4,5 C 2,8 C 93 % 1015,1 hPa 0,0 l/m 0 min 0 min 5 W/m 16,7 km/h (3 Bft)
03.03.2015 18:20 4,4 C 2,8 C 93 % 1015,1 hPa 0,0 l/m 0 min 0 min 5 W/m 16,7 km/h (3 Bft)
03.03.2015 18:22 4,4 C 2,8 C 93 % 1015,1 hPa 0,0 l/m 0 min 0 min 5 W/m 23,0 km/h (4 Bft)
03.03.2015 18:24 4,4 C 2,8 C 93 % 1015,1 hPa 0,0 l/m 0 min 0 min 2 W/m 18,8 km/h (3 Bft)
03.03.2015 18:26 4,4 C 2,2 C 93 % 1015,1 hPa 0,0 l/m 0 min 0 min 0 W/m 18,8 km/h (3 Bft)
03.03.2015 18:28 4,3 C 2,2 C 93 % 1015,1 hPa 0,0 l/m 0 min 0 min 0 W/m 18,8 km/h (3 Bft)
03.03.2015 18:30 4,3 C 2,8 C 93 % 1015,2 hPa 0,0 l/m 0 min 0 min 0 W/m 16,7 km/h (3 Bft)
03.03.2015 18:32 4,3 C 2,8 C 93 % 1015,3 hPa 0,0 l/m 0 min 0 min 0 W/m 14,6 km/h (3 Bft)
03.03.2015 18:34 4,3 C 2,8 C 93 % 1015,2 hPa 0,0 l/m 0 min 0 min 0 W/m 18,8 km/h (3 Bft)
03.03.2015 18:36 4,3 C 2,8 C 93 % 1015,4 hPa 0,0 l/m 0 min 0 min 0 W/m 14,6 km/h (3 Bft)
03.03.2015 18:38 4,3 C 2,8 C 93 % 1015,3 hPa 0,0 l/m 0 min 0 min 0 W/m 16,7 km/h (3 Bft)
03.03.2015 18:40 4,3 C 2,8 C 93 % 1015,3 hPa 0,0 l/m 0 min 0 min 0 W/m 18,8 km/h (3 Bft)
03.03.2015 18:42 4,3 C 2,8 C 93 % 1015,4 hPa 0,0 l/m 0 min 0 min 0 W/m 16,7 km/h (3 Bft)
03.03.2015 18:44 4,3 C 2,8 C 93 % 1015,5 hPa 0,0 l/m 0 min 0 min 0 W/m 14,6 km/h (3 Bft)
03.03.2015 18:46 4,3 C 2,8 C 93 % 1015,5 hPa 0,0 l/m 0 min 0 min 0 W/m 16,7 km/h (3 Bft)
03.03.2015 18:48 4,3 C 2,8 C 93 % 1015,5 hPa 0,0 l/m 0 min 0 min 0 W/m 16,7 km/h (3 Bft)
03.03.2015 18:50 4,3 C 2,8 C 93 % 1015,5 hPa 0,0 l/m 0 min 0 min 0 W/m 16,7 km/h (3 Bft)
03.03.2015 18:52 4,3 C 2,8 C 93 % 1015,6 hPa 0,0 l/m 0 min 0 min 0 W/m 20,9 km/h (4 Bft)
03.03.2015 18:54 4,3 C 2,8 C 93 % 1015,6 hPa 0,0 l/m 0 min 0 min 0 W/m 16,7 km/h (3 Bft)
03.03.2015 18:56 4,3 C 2,8 C 93 % 1015,6 hPa 0,0 l/m 0 min 0 min 0 W/m 20,9 km/h (4 Bft)
03.03.2015 18:58 4,3 C 2,8 C 93 % 1015,7 hPa 0,0 l/m 0 min 0 min 0 W/m 14,6 km/h (3 Bft)
03.03.2015 19:00 4,3 C 2,8 C 93 % 1015,7 hPa 0,0 l/m 0 min 0 min 0 W/m 16,7 km/h (3 Bft)
03.03.2015 19:02 4,3 C 2,8 C 93 % 1015,7 hPa 0,0 l/m 0 min 0 min 0 W/m 20,9 km/h (4 Bft)
03.03.2015 19:04 4,3 C 2,8 C 93 % 1015,7 hPa 0,0 l/m 0 min 2 min 0 W/m 16,7 km/h (3 Bft)
03.03.2015 19:06 4,3 C 2,8 C 93 % 1015,6 hPa 0,0 l/m 0 min 2 min 0 W/m 18,8 km/h (3 Bft)
03.03.2015 19:08 4,3 C 2,8 C 93 % 1015,7 hPa 0,0 l/m 0 min 2 min 0 W/m 23,0 km/h (4 Bft)
03.03.2015 19:10 4,3 C 2,8 C 93 % 1015,8 hPa 0,0 l/m 0 min 2 min 0 W/m 25,1 km/h (4 Bft)
03.03.2015 19:12 4,3 C 2,8 C 94 % 1015,8 hPa 0,0 l/m 0 min 0 min 0 W/m 18,8 km/h (3 Bft)
03.03.2015 19:14 4,3 C 2,8 C 94 % 1015,9 hPa 0,0 l/m 0 min 0 min 0 W/m 23,0 km/h (4 Bft)
03.03.2015 19:16 4,3 C 2,8 C 94 % 1015,9 hPa 0,0 l/m 0 min 0 min 0 W/m 27,2 km/h (4 Bft)
03.03.2015 19:18 4,3 C 2,8 C 94 % 1015,9 hPa 0,0 l/m 0 min 0 min 0 W/m 18,8 km/h (3 Bft)
03.03.2015 19:20 4,3 C 2,8 C 94 % 1015,9 hPa 0,0 l/m 0 min 0 min 0 W/m 23,0 km/h (4 Bft)
03.03.2015 19:22 4,3 C 2,8 C 94 % 1016,0 hPa 0,0 l/m 0 min 0 min 0 W/m 25,1 km/h (4 Bft)
03.03.2015 19:24 4,3 C 2,8 C 94 % 1016,0 hPa 0,0 l/m 0 min 0 min 0 W/m 23,0 km/h (4 Bft)
03.03.2015 19:26 4,4 C 2,8 C 94 % 1016,1 hPa 0,0 l/m 0 min 0 min 0 W/m 20,9 km/h (4 Bft)
03.03.2015 19:28 4,4 C 2,8 C 94 % 1016,2 hPa 0,0 l/m 0 min 0 min 0 W/m 29,3 km/h (5 Bft)
03.03.2015 19:30 4,4 C 2,8 C 94 % 1016,2 hPa 0,0 l/m 0 min 0 min 0 W/m 18,8 km/h (3 Bft)
03.03.2015 19:31 4,4 C 2,8 C 94 % 1016,2 hPa 0,0 l/m 0 min 0 min 0 W/m 33,5 km/h (5 Bft)
03.03.2015 19:32 4,4 C 2,8 C 94 % 1016,2 hPa 0,0 l/m 0 min 0 min 0 W/m 27,2 km/h (4 Bft)
03.03.2015 19:33 4,4 C 2,8 C 94 % 1016,3 hPa 0,0 l/m 0 min 0 min 0 W/m 25,1 km/h (4 Bft)
03.03.2015 19:34 4,4 C 2,8 C 94 % 1016,2 hPa 0,0 l/m 0 min 0 min 0 W/m 27,2 km/h (4 Bft)
03.03.2015 19:35 4,4 C 2,8 C 94 % 1016,2 hPa 0,0 l/m 0 min 0 min 0 W/m 23,0 km/h (4 Bft)
03.03.2015 19:36 4,4 C 2,8 C 94 % 1016,2 hPa 0,0 l/m 0 min 0 min 0 W/m 25,1 km/h (4 Bft)
03.03.2015 19:37 4,4 C 2,8 C 94 % 1016,2 hPa 0,0 l/m 0 min 0 min 0 W/m 14,6 km/h (3 Bft)
03.03.2015 19:38 4,4 C 2,8 C 94 % 1016,1 hPa 0,0 l/m 0 min 0 min 0 W/m 23,0 km/h (4 Bft)
03.03.2015 19:40 4,4 C 2,8 C 94 % 1016,2 hPa 0,0 l/m 0 min 0 min 0 W/m 25,1 km/h (4 Bft)
03.03.2015 19:42 4,4 C 2,8 C 93 % 1016,3 hPa 0,0 l/m 0 min 0 min 0 W/m 18,8 km/h (3 Bft)
03.03.2015 19:44 4,4 C 2,8 C 93 % 1016,3 hPa 0,0 l/m 0 min 0 min 0 W/m 20,9 km/h (4 Bft)
03.03.2015 19:46 4,4 C 2,8 C 93 % 1016,2 hPa 0,0 l/m 0 min 0 min 0 W/m 20,9 km/h (4 Bft)
03.03.2015 19:48 4,4 C 2,8 C 93 % 1016,3 hPa 0,0 l/m 0 min 0 min 0 W/m 23,0 km/h (4 Bft)
03.03.2015 19:50 4,3 C 2,8 C 93 % 1016,3 hPa 0,0 l/m 0 min 0 min 0 W/m 20,9 km/h (4 Bft)
03.03.2015 19:52 4,3 C 2,8 C 93 % 1016,3 hPa 0,0 l/m 0 min 0 min 0 W/m 18,8 km/h (3 Bft)
03.03.2015 19:54 4,3 C 2,8 C 93 % 1016,3 hPa 0,0 l/m 0 min 0 min 0 W/m 16,7 km/h (3 Bft)
03.03.2015 19:56 4,3 C 2,8 C 93 % 1016,3 hPa 0,0 l/m 0 min 0 min 0 W/m 12,6 km/h (3 Bft)
03.03.2015 19:58 4,3 C 2,8 C 93 % 1016,3 hPa 0,0 l/m 0 min 0 min 0 W/m 14,6 km/h (3 Bft)
03.03.2015 20:00 4,3 C 2,8 C 93 % 1016,3 hPa 0,0 l/m 0 min 0 min 0 W/m 14,6 km/h (3 Bft)
03.03.2015 20:02 4,3 C 2,2 C 93 % 1016,3 hPa 0,0 l/m 0 min 0 min 0 W/m 12,6 km/h (3 Bft)
03.03.2015 20:04 4,3 C 2,2 C 93 % 1016,2 hPa 0,0 l/m 0 min 0 min 0 W/m 12,6 km/h (3 Bft)
03.03.2015 20:06 4,2 C 2,2 C 93 % 1016,2 hPa 0,0 l/m 0 min 0 min 0 W/m 16,7 km/h (3 Bft)
03.03.2015 20:08 4,2 C 2,2 C 93 % 1016,2 hPa 0,0 l/m 0 min 0 min 0 W/m 16,7 km/h (3 Bft)
03.03.2015 20:10 4,2 C 2,2 C 93 % 1016,3 hPa 0,0 l/m 0 min 0 min 0 W/m 14,6 km/h (3 Bft)
03.03.2015 20:12 4,2 C 2,2 C 93 % 1016,3 hPa 0,0 l/m 0 min 0 min 0 W/m 12,6 km/h (3 Bft)
03.03.2015 20:14 4,2 C 2,2 C 92 % 1016,3 hPa 0,0 l/m 0 min 0 min 0 W/m 14,6 km/h (3 Bft)
03.03.2015 20:16 4,2 C 2,2 C 92 % 1016,3 hPa 0,0 l/m 0 min 0 min 0 W/m 14,6 km/h (3 Bft)
03.03.2015 20:18 4,2 C 2,2 C 92 % 1016,4 hPa 0,0 l/m 0 min 0 min 0 W/m 14,6 km/h (3 Bft)
03.03.2015 20:20 4,1 C 2,2 C 92 % 1016,4 hPa 0,0 l/m 0 min 0 min 0 W/m 20,9 km/h (4 Bft)
03.03.2015 20:22 4,1 C 2,2 C 92 % 1016,4 hPa 0,0 l/m 0 min 0 min 0 W/m 12,6 km/h (3 Bft)
03.03.2015 20:24 4,1 C 2,2 C 92 % 1016,4 hPa 0,0 l/m 0 min 0 min 0 W/m 12,6 km/h (3 Bft)
03.03.2015 20:26 4,1 C 2,2 C 92 % 1016,4 hPa 0,0 l/m 0 min 0 min 0 W/m 16,7 km/h (3 Bft)
03.03.2015 20:28 4,1 C 2,2 C 92 % 1016,4 hPa 0,0 l/m 0 min 0 min 0 W/m 16,7 km/h (3 Bft)
03.03.2015 20:30 4,1 C 2,2 C 92 % 1016,4 hPa 0,0 l/m 0 min 0 min 0 W/m 16,7 km/h (3 Bft)
03.03.2015 20:32 4,1 C 2,2 C 92 % 1016,5 hPa 0,0 l/m 0 min 0 min 0 W/m 12,6 km/h (3 Bft)
03.03.2015 20:34 4,1 C 2,2 C 92 % 1016,5 hPa 0,0 l/m 0 min 0 min 0 W/m 16,7 km/h (3 Bft)
03.03.2015 20:36 4,1 C 2,2 C 92 % 1016,5 hPa 0,0 l/m 0 min 0 min 0 W/m 16,7 km/h (3 Bft)
03.03.2015 20:38 4,1 C 2,2 C 92 % 1016,6 hPa 0,0 l/m 0 min 0 min 0 W/m 14,6 km/h (3 Bft)
03.03.2015 20:40 4,1 C 2,2 C 92 % 1016,7 hPa 0,0 l/m 0 min 0 min 0 W/m 20,9 km/h (4 Bft)
03.03.2015 20:42 4,1 C 2,2 C 92 % 1016,7 hPa 0,0 l/m 0 min 0 min 0 W/m 14,6 km/h (3 Bft)
03.03.2015 20:44 4,1 C 2,2 C 92 % 1016,8 hPa 0,0 l/m 0 min 0 min 0 W/m 18,8 km/h (3 Bft)
03.03.2015 20:46 4,1 C 2,2 C 91 % 1016,9 hPa 0,0 l/m 0 min 0 min 0 W/m 14,6 km/h (3 Bft)
03.03.2015 20:48 4,0 C 2,2 C 91 % 1016,9 hPa 0,0 l/m 0 min 0 min 0 W/m 16,7 km/h (3 Bft)
03.03.2015 20:50 4,1 C 2,2 C 91 % 1016,9 hPa 0,0 l/m 0 min 0 min 0 W/m 14,6 km/h (3 Bft)
03.03.2015 20:52 4,0 C 2,2 C 91 % 1016,9 hPa 0,0 l/m 0 min 0 min 0 W/m 16,7 km/h (3 Bft)
03.03.2015 20:54 4,0 C 2,2 C 91 % 1016,9 hPa 0,0 l/m 0 min 0 min 0 W/m 18,8 km/h (3 Bft)
03.03.2015 20:56 4,0 C 2,2 C 91 % 1017,0 hPa 0,0 l/m 0 min 0 min 0 W/m 16,7 km/h (3 Bft)
03.03.2015 20:58 4,0 C 2,2 C 91 % 1017,0 hPa 0,0 l/m 0 min 0 min 0 W/m 18,8 km/h (3 Bft)
03.03.2015 21:00 4,0 C 2,2 C 91 % 1017,0 hPa 0,0 l/m 0 min 0 min 0 W/m 16,7 km/h (3 Bft)
03.03.2015 21:02 4,0 C 2,2 C 91 % 1017,1 hPa 0,0 l/m 0 min 0 min 0 W/m 18,8 km/h (3 Bft)
03.03.2015 21:04 4,0 C 2,2 C 91 % 1017,2 hPa 0,0 l/m 0 min 0 min 0 W/m 23,0 km/h (4 Bft)
03.03.2015 21:06 4,0 C 2,2 C 91 % 1017,3 hPa 0,0 l/m 0 min 0 min 0 W/m 20,9 km/h (4 Bft)
03.03.2015 21:08 3,9 C 2,2 C 91 % 1017,2 hPa 0,0 l/m 0 min 0 min 0 W/m 18,8 km/h (3 Bft)
03.03.2015 21:10 3,9 C 2,2 C 91 % 1017,3 hPa 0,0 l/m 0 min 0 min 0 W/m 29,3 km/h (5 Bft)
03.03.2015 21:12 3,9 C 2,2 C 91 % 1017,2 hPa 0,0 l/m 0 min 0 min 0 W/m 23,0 km/h (4 Bft)
03.03.2015 21:14 3,9 C 2,2 C 91 % 1017,3 hPa 0,0 l/m 0 min 0 min 0 W/m 23,0 km/h (4 Bft)
03.03.2015 21:16 4,0 C 2,2 C 91 % 1017,2 hPa 0,0 l/m 0 min 0 min 0 W/m 27,2 km/h (4 Bft)
03.03.2015 21:18 3,9 C 2,2 C 91 % 1017,3 hPa 0,0 l/m 0 min 2 min 0 W/m 23,0 km/h (4 Bft)
03.03.2015 21:20 3,9 C 2,2 C 91 % 1017,2 hPa 0,0 l/m 0 min 0 min 0 W/m 18,8 km/h (3 Bft)
03.03.2015 21:22 3,9 C 2,2 C 91 % 1017,2 hPa 0,0 l/m 0 min 0 min 0 W/m 25,1 km/h (4 Bft)
03.03.2015 21:24 3,9 C 2,2 C 91 % 1017,3 hPa 0,0 l/m 0 min 0 min 0 W/m 18,8 km/h (3 Bft)
03.03.2015 21:26 3,9 C 2,2 C 91 % 1017,4 hPa 0,0 l/m 0 min 0 min 0 W/m 20,9 km/h (4 Bft)
03.03.2015 21:28 3,9 C 2,2 C 90 % 1017,3 hPa 0,0 l/m 0 min 0 min 0 W/m 16,7 km/h (3 Bft)
03.03.2015 21:30 3,9 C 2,2 C 90 % 1017,4 hPa 0,0 l/m 0 min 0 min 0 W/m 20,9 km/h (4 Bft)
03.03.2015 21:32 3,9 C 2,2 C 90 % 1017,4 hPa 0,0 l/m 0 min 0 min 0 W/m 16,7 km/h (3 Bft)
03.03.2015 21:34 3,9 C 2,2 C 90 % 1017,3 hPa 0,0 l/m 0 min 0 min 0 W/m 18,8 km/h (3 Bft)
03.03.2015 21:36 3,9 C 2,2 C 90 % 1017,4 hPa 0,0 l/m 0 min 0 min 0 W/m 20,9 km/h (4 Bft)
03.03.2015 21:38 3,9 C 2,2 C 90 % 1017,4 hPa 0,0 l/m 0 min 0 min 0 W/m 18,8 km/h (3 Bft)
03.03.2015 21:40 3,9 C 2,2 C 90 % 1017,5 hPa 0,0 l/m 0 min 0 min 0 W/m 18,8 km/h (3 Bft)
03.03.2015 21:42 3,9 C 2,2 C 90 % 1017,5 hPa 0,0 l/m 0 min 0 min 0 W/m 23,0 km/h (4 Bft)
03.03.2015 21:44 3,9 C 2,2 C 90 % 1017,5 hPa 0,0 l/m 0 min 0 min 0 W/m 23,0 km/h (4 Bft)
03.03.2015 21:46 3,9 C 2,2 C 90 % 1017,5 hPa 0,0 l/m 0 min 0 min 0 W/m 18,8 km/h (3 Bft)
03.03.2015 21:48 3,9 C 2,2 C 90 % 1017,4 hPa 0,0 l/m 0 min 0 min 0 W/m 20,9 km/h (4 Bft)
03.03.2015 21:50 3,9 C 2,2 C 90 % 1017,4 hPa 0,0 l/m 0 min 0 min 0 W/m 25,1 km/h (4 Bft)
03.03.2015 21:52 3,9 C 1,7 C 90 % 1017,5 hPa 0,0 l/m 0 min 0 min 0 W/m 14,6 km/h (3 Bft)
03.03.2015 21:54 3,9 C 1,7 C 90 % 1017,6 hPa 0,0 l/m 0 min 0 min 0 W/m 14,6 km/h (3 Bft)
03.03.2015 21:56 3,8 C 1,7 C 90 % 1017,6 hPa 0,0 l/m 0 min 0 min 0 W/m 14,6 km/h (3 Bft)
03.03.2015 21:58 3,8 C 1,7 C 90 % 1017,6 hPa 0,0 l/m 0 min 0 min 0 W/m 23,0 km/h (4 Bft)
03.03.2015 22:00 3,8 C 1,7 C 90 % 1017,6 hPa 0,0 l/m 0 min 0 min 0 W/m 14,6 km/h (3 Bft)
03.03.2015 22:02 3,8 C 1,7 C 90 % 1017,6 hPa 0,0 l/m 0 min 0 min 0 W/m 16,7 km/h (3 Bft)
03.03.2015 22:04 3,8 C 1,7 C 90 % 1017,5 hPa 0,0 l/m 0 min 0 min 0 W/m 14,6 km/h (3 Bft)
03.03.2015 22:06 3,7 C 1,7 C 90 % 1017,7 hPa 0,0 l/m 0 min 0 min 0 W/m 18,8 km/h (3 Bft)
03.03.2015 22:08 3,7 C 1,7 C 90 % 1017,6 hPa 0,0 l/m 0 min 0 min 0 W/m 16,7 km/h (3 Bft)
03.03.2015 22:10 3,7 C 1,7 C 90 % 1017,6 hPa 0,0 l/m 0 min 0 min 0 W/m 14,6 km/h (3 Bft)
03.03.2015 22:12 3,7 C 1,7 C 90 % 1017,8 hPa 0,0 l/m 0 min 0 min 0 W/m 14,6 km/h (3 Bft)
03.03.2015 22:14 3,7 C 1,7 C 90 % 1017,8 hPa 0,0 l/m 0 min 0 min 0 W/m 18,8 km/h (3 Bft)
03.03.2015 22:16 3,7 C 1,7 C 90 % 1017,8 hPa 0,0 l/m 0 min 0 min 0 W/m 18,8 km/h (3 Bft)
03.03.2015 22:18 3,6 C 1,7 C 90 % 1017,9 hPa 0,0 l/m 0 min 0 min 0 W/m 16,7 km/h (3 Bft)
03.03.2015 22:20 3,6 C 1,7 C 90 % 1017,9 hPa 0,0 l/m 0 min 0 min 0 W/m 14,6 km/h (3 Bft)
03.03.2015 22:22 3,6 C 1,7 C 90 % 1017,9 hPa 0,0 l/m 0 min 0 min 0 W/m 18,8 km/h (3 Bft)
03.03.2015 22:24 3,6 C 1,7 C 90 % 1017,9 hPa 0,0 l/m 0 min 0 min 0 W/m 14,6 km/h (3 Bft)
03.03.2015 22:26 3,5 C 1,7 C 90 % 1017,9 hPa 0,0 l/m 0 min 0 min 0 W/m 16,7 km/h (3 Bft)
03.03.2015 22:28 3,5 C 1,7 C 90 % 1017,9 hPa 0,0 l/m 0 min 0 min 0 W/m 18,8 km/h (3 Bft)
03.03.2015 22:30 3,4 C 1,7 C 90 % 1017,8 hPa 0,0 l/m 0 min 0 min 0 W/m 12,6 km/h (3 Bft)
03.03.2015 22:32 3,4 C 1,7 C 90 % 1017,9 hPa 0,0 l/m 0 min 0 min 0 W/m 18,8 km/h (3 Bft)
03.03.2015 22:34 3,4 C 1,7 C 90 % 1017,7 hPa 0,0 l/m 0 min 0 min 0 W/m 12,6 km/h (3 Bft)
03.03.2015 22:36 3,4 C 1,7 C 90 % 1017,9 hPa 0,0 l/m 0 min 0 min 0 W/m 12,6 km/h (3 Bft)
03.03.2015 22:38 3,4 C 1,7 C 90 % 1017,9 hPa 0,0 l/m 0 min 0 min 0 W/m 10,5 km/h (2 Bft)
03.03.2015 22:40 3,3 C 1,7 C 90 % 1017,9 hPa 0,0 l/m 0 min 0 min 0 W/m 12,6 km/h (3 Bft)
03.03.2015 22:42 3,3 C 1,7 C 90 % 1017,9 hPa 0,0 l/m 0 min 0 min 0 W/m 14,6 km/h (3 Bft)
03.03.2015 22:44 3,3 C 1,7 C 90 % 1017,9 hPa 0,0 l/m 0 min 0 min 0 W/m 12,6 km/h (3 Bft)
03.03.2015 22:46 3,3 C 1,7 C 90 % 1017,9 hPa 0,0 l/m 0 min 0 min 0 W/m 12,6 km/h (3 Bft)
03.03.2015 22:48 3,3 C 1,1 C 90 % 1018,0 hPa 0,0 l/m 0 min 0 min 0 W/m 10,5 km/h (2 Bft)
03.03.2015 22:50 3,2 C 1,1 C 90 % 1018,0 hPa 0,0 l/m 0 min 0 min 0 W/m 16,7 km/h (3 Bft)
03.03.2015 22:52 3,2 C 1,1 C 90 % 1018,0 hPa 0,0 l/m 0 min 0 min 0 W/m 16,7 km/h (3 Bft)
03.03.2015 22:54 3,2 C 1,1 C 90 % 1018,0 hPa 0,0 l/m 0 min 0 min 0 W/m 18,8 km/h (3 Bft)
03.03.2015 22:56 3,2 C 1,1 C 90 % 1018,0 hPa 0,0 l/m 0 min 0 min 0 W/m 16,7 km/h (3 Bft)
03.03.2015 22:58 3,2 C 1,1 C 90 % 1018,0 hPa 0,0 l/m 0 min 0 min 0 W/m 12,6 km/h (3 Bft)
03.03.2015 23:00 3,2 C 1,1 C 90 % 1018,0 hPa 0,0 l/m 0 min 0 min 0 W/m 18,8 km/h (3 Bft)
03.03.2015 23:02 3,2 C 1,1 C 90 % 1018,1 hPa 0,0 l/m 0 min 0 min 0 W/m 20,9 km/h (4 Bft)
03.03.2015 23:04 3,2 C 1,7 C 90 % 1018,0 hPa 0,0 l/m 0 min 0 min 0 W/m 18,8 km/h (3 Bft)
03.03.2015 23:06 3,2 C 1,7 C 90 % 1018,0 hPa 0,0 l/m 0 min 0 min 0 W/m 18,8 km/h (3 Bft)
03.03.2015 23:08 3,2 C 1,7 C 90 % 1018,2 hPa 0,0 l/m 0 min 0 min 0 W/m 20,9 km/h (4 Bft)
03.03.2015 23:10 3,2 C 1,7 C 90 % 1018,4 hPa 0,0 l/m 0 min 0 min 0 W/m 16,7 km/h (3 Bft)
03.03.2015 23:12 3,2 C 1,7 C 90 % 1018,4 hPa 0,0 l/m 0 min 0 min 0 W/m 16,7 km/h (3 Bft)
03.03.2015 23:14 3,2 C 1,7 C 90 % 1018,5 hPa 0,0 l/m 0 min 2 min 0 W/m 23,0 km/h (4 Bft)
03.03.2015 23:16 3,2 C 1,7 C 90 % 1018,4 hPa 0,0 l/m 0 min 0 min 0 W/m 16,7 km/h (3 Bft)
03.03.2015 23:18 3,2 C 1,7 C 90 % 1018,4 hPa 0,0 l/m 0 min 0 min 0 W/m 29,3 km/h (5 Bft)
03.03.2015 23:20 3,2 C 1,7 C 90 % 1018,5 hPa 0,0 l/m 0 min 2 min 0 W/m 18,8 km/h (3 Bft)
03.03.2015 23:22 3,2 C 1,1 C 90 % 1018,5 hPa 0,0 l/m 0 min 2 min 0 W/m 12,6 km/h (3 Bft)
03.03.2015 23:24 3,3 C 1,1 C 90 % 1018,5 hPa 0,0 l/m 0 min 2 min 0 W/m 16,7 km/h (3 Bft)
03.03.2015 23:26 3,3 C 1,1 C 90 % 1018,4 hPa 0,0 l/m 0 min 2 min 0 W/m 12,6 km/h (3 Bft)
03.03.2015 23:28 3,3 C 1,1 C 89 % 1018,6 hPa 0,0 l/m 0 min 2 min 0 W/m 12,6 km/h (3 Bft)
03.03.2015 23:30 3,2 C 1,1 C 89 % 1018,6 hPa 0,0 l/m 0 min 2 min 0 W/m 8,4 km/h (2 Bft)
03.03.2015 23:32 3,2 C 1,1 C 89 % 1018,5 hPa 0,0 l/m 0 min 2 min 0 W/m 8,4 km/h (2 Bft)
03.03.2015 23:34 3,2 C 0,6 C 89 % 1018,5 hPa 0,0 l/m 0 min 2 min 0 W/m 10,5 km/h (2 Bft)
03.03.2015 23:36 3,2 C 0,6 C 90 % 1018,5 hPa 0,0 l/m 0 min 2 min 0 W/m 6,3 km/h (2 Bft)
03.03.2015 23:38 3,2 C 0,6 C 90 % 1018,6 hPa 0,0 l/m 0 min 2 min 0 W/m 12,6 km/h (3 Bft)
03.03.2015 23:40 3,2 C 0,6 C 90 % 1018,7 hPa 0,0 l/m 0 min 2 min 0 W/m 14,6 km/h (3 Bft)
03.03.2015 23:42 3,1 C 0,6 C 89 % 1018,6 hPa 0,0 l/m 0 min 2 min 0 W/m 18,8 km/h (3 Bft)
03.03.2015 23:44 3,1 C 1,1 C 89 % 1018,7 hPa 0,0 l/m 0 min 2 min 0 W/m 16,7 km/h (3 Bft)
03.03.2015 23:46 3,1 C 1,1 C 89 % 1018,8 hPa 0,0 l/m 0 min 2 min 0 W/m 18,8 km/h (3 Bft)
03.03.2015 23:48 3,1 C 1,1 C 89 % 1018,7 hPa 0,0 l/m 0 min 2 min 0 W/m 12,6 km/h (3 Bft)
03.03.2015 23:50 3,1 C 1,1 C 90 % 1018,7 hPa 0,0 l/m 0 min 0 min 0 W/m 14,6 km/h (3 Bft)
03.03.2015 23:52 3,0 C 1,1 C 90 % 1018,7 hPa 0,0 l/m 0 min 0 min 0 W/m 12,6 km/h (3 Bft)
03.03.2015 23:54 3,0 C 0,6 C 90 % 1018,7 hPa 0,0 l/m 0 min 0 min 0 W/m 14,6 km/h (3 Bft)
03.03.2015 23:56 2,9 C 0,6 C 90 % 1018,7 hPa 0,0 l/m 0 min 0 min 0 W/m 14,6 km/h (3 Bft)
03.03.2015 23:58 2,9 C 1,1 C 90 % 1018,7 hPa 0,0 l/m 0 min 0 min 0 W/m 16,7 km/h (3 Bft)
_ Min-Zeit 03:24 23:34 13:52 13:46 - - - - 23:36
Minimum _ 2,6 C 0,6 C 62 % 1014,0 hPa - - - - 6,3 km/h (2 Bft)
_ Max-Zeit 13:44 13:42 17:18 23:46 14:34 07:28 14:10 13:10 16:22
Maximum _ 9,6 C 9,4 C 94 % 1018,8 hPa 0,2 l/m 2 min 2 min 499 W/m 66,9 km/h
NW (8 Bft)
Durchschnitt _ 4,5 C 3,2 C 85 % 1016,3 hPa #2,6 l/m #4:42 h #2:28 h 158 W/m 27,0 km/h (4 Bft)
© 2015 W. Hausmann